N8MS Weather Reports


Display with metric or nautical units.
time (UTC)temp
F
wind
direction
speed
MPH
gust
MPH
rain 1hr
in
rain 24hr
in
rain mn
in
humidity
%
barometer
mb
20260831141842 71 348 2.0 5.0 0.01 0.38 0.01 91 1017.1
20260831141754 71 232 3.0 7.0 0.01 0.38 0.01 91 1017.2
20260831141655 71 244 3.0 7.0 0.01 0.38 0.01 91 1017.2
20260831141526 71 248 3.0 7.0 0.01 0.38 0.01 91 1017.2
20260831141439 71 198 3.0 7.0 0.01 0.38 0.01 91 1017.3
20260831141331 71 259 2.0 7.0 0.01 0.38 0.01 91 1017.2
20260831141223 71 232 1.0 7.0 0.01 0.38 0.01 91 1017.1
20260831141135 71 196 3.0 7.0 0.01 0.38 0.01 91 1017.2
20260831141046 71 222 3.0 7.0 0.01 0.38 0.01 91 1017.2
20260831140936 71 228 2.0 4.0 0.01 0.38 0.01 91 1017.2
20260831140833 71 234 2.0 4.0 0.01 0.38 0.01 91 1017.1
20260831140723 71 259 2.0 4.0 0.01 0.38 0.01 91 1017.1
20260831140635 71 234 2.0 4.0 0.01 0.38 0.01 91 1017.1
20260831140526 71 240 2.0 4.0 0.01 0.38 0.01 91 1017.1
20260831140438 71 249 2.0 3.0 0.01 0.38 0.01 91 1017.1
20260831140329 71 229 0.0 3.0 0.01 0.38 0.01 91 1017.1
20260831140239 71 332 0.0 7.0 0.01 0.44 0.01 91 1017.1
20260831140201 71 219 0.0 7.0 0.01 0.44 0.01 91 1017.1
20260831140036 71 234 1.0 7.0 0.01 0.44 0.01 91 1017.1
20260831135927 71 234 1.0 7.0 0.01 0.44 0.01 91 1017.1
20260831135839 71 229 1.0 7.0 0.01 0.44 0.01 91 1017.2
20260831135731 71 227 0.0 7.0 0.01 0.44 0.01 91 1017.1
20260831135623 71 227 1.0 7.0 0.01 0.44 0.01 91 1017.2
20260831135536 71 227 2.0 7.0 0.01 0.44 0.01 90 1017.2
20260831135428 71 235 3.0 7.0 0.01 0.44 0.01 90 1017.2
20260831135339 71 221 2.0 4.0 0.01 0.44 0.01 90 1017.2
20260831135235 71 237 2.0 4.0 0.01 0.44 0.01 90 1017.2
20260831135146 71 237 2.0 4.0 0.01 0.44 0.01 90 1017.1
20260831135100 71 237 1.0 4.0 0.01 0.44 0.01 90 1017.2
20260831134931 71 229 1.0 4.0 0.01 0.44 0.01 90 1017.1
20260831134824 71 193 2.0 4.0 0.01 0.44 0.01 90 1017.3
20260831134736 71 154 1.0 4.0 0.00 0.43 0.00 90 1017.3
20260831134658 71 194 1.0 4.0 0.00 0.43 0.00 90 1017.3
20260831134549 71 167 0.0 3.0 0.00 0.43 0.00 90 1017.3
20260831134502 71 167 1.0 3.0 0.00 0.43 0.00 90 1017.4
20260831134354 71 244 1.0 3.0 0.00 0.43 0.00 90 1017.4
20260831134307 71 217 1.0 3.0 0.00 0.43 0.00 90 1017.3
20260831134202 71 223 0.0 2.0 0.00 0.43 0.00 90 1017.3
20260831134034 71 235 0.0 2.0 0.00 0.43 0.00 90 1017.3
20260831133925 71 235 0.0 2.0 0.00 0.43 0.00 90 1017.3
20260831133837 71 235 0.0 1.0 0.00 0.43 0.00 90 1017.2
20260831133729 71 234 0.0 3.0 0.00 0.43 0.00 90 1017.2
20260831133641 71 161 0.0 3.0 0.00 0.43 0.00 90 1017.1
20260831133534 71 237 0.0 3.0 0.00 0.43 0.00 90 1017.2
20260831133445 71 237 0.0 3.0 0.00 0.43 0.00 90 1017.3
20260831133357 71 237 0.0 3.0 0.00 0.43 0.00 90 1017.2
20260831133255 72 237 0.0 3.0 0.00 0.43 0.00 90 1017.2
20260831133217 72 237 0.0 3.0 0.00 0.43 0.00 90 1017.2
20260831133026 72 217 1.0 3.0 0.00 0.43 0.00 90 1017.2
20260831132938 72 234 1.0 3.0 0.00 0.43 0.00 90 1017.2
20260831132850 71 250 1.0 4.0 0.00 0.43 0.00 90 1017.2
20260831132802 72 250 2.0 4.0 0.00 0.43 0.00 90 1017.2
20260831132653 72 250 1.0 4.0 0.00 0.43 0.00 90 1017.2
20260831132524 71 209 0.0 4.0 0.00 0.43 0.00 90 1017.1
20260831132437 71 169 1.0 4.0 0.00 0.43 0.00 90 1017.1
20260831132327 71 144 1.0 4.0 0.00 0.43 0.00 90 1017.2
20260831132224 71 274 2.0 4.0 0.00 0.43 0.00 90 1017.2
20260831132136 71 285 2.0 4.0 0.00 0.43 0.00 90 1017.2
20260831132029 71 280 1.0 4.0 0.00 0.43 0.00 90 1017.2
20260831131922 71 139 0.0 2.0 0.00 0.43 0.00 90 1017.1
20260831131835 71 153 0.0 0.0 0.00 0.43 0.00 90 1017.2
20260831131747 71 204 0.0 0.0 0.00 0.43 0.00 90 1017.2
20260831131708 71 211 0.0 0.0 0.00 0.43 0.00 90 1017.2
20260831131559 71 211 0.0 0.0 0.00 0.43 0.00 90 1017.2
20260831131430 71 211 0.0 0.0 0.00 0.43 0.00 90 1017.2
20260831131325 71 211 0.0 0.0 0.00 0.43 0.00 90 1017.3
20260831131238 71 221 0.0 0.0 0.00 0.43 0.00 90 1017.4
20260831131150 71 221 0.0 0.0 0.00 0.43 0.00 90 1017.4
20260831131102 71 221 0.0 0.0 0.00 0.43 0.00 90 1017.3
20260831130933 71 221 0.0 0.0 0.00 0.43 0.00 90 1017.3
20260831130826 71 221 0.0 0.0 0.00 0.43 0.00 90 1017.3
20260831130738 71 221 0.0 0.0 0.00 0.43 0.00 90 1017.2
20260831130651 71 221 0.0 0.0 0.00 0.43 0.00 90 1017.1
20260831130542 71 221 0.0 0.0 0.00 0.43 0.00 90 1017.2
20260831130438 71 221 0.0 0.0 0.00 0.43 0.00 90 1017.1
20260831130350 71 221 0.0 0.0 0.00 0.43 0.00 91 1017.1
20260831130302 71 221 0.0 0.0 0.00 0.43 0.00 91 1017.2
20260831130223 71 221 0.0 0.0 0.00 0.43 0.00 91 1017.1
20260831130034 71 221 0.0 0.0 0.00 0.43 0.00 91 1017.1
20260831125925 71 221 0.0 0.0 0.00 0.43 0.00 91 1017.1
20260831125837 71 221 0.0 0.0 0.00 0.43 0.00 90 1017.1
20260831125749 71 221 0.0 0.0 0.00 0.43 0.00 91 1017.1
20260831125640 71 221 0.0 0.0 0.00 0.43 0.00 91 1017.0
20260831125533 71 115 0.0 0.0 0.00 0.43 0.00 91 1017.1
20260831125429 71 115 0.0 0.0 0.00 0.43 0.00 91 1017.1
20260831125341 71 115 0.0 0.0 0.00 0.43 0.00 91 1017.0
20260831125233 71 115 0.0 0.0 0.00 0.43 0.00 91 1017.1
20260831125124 71 115 0.0 0.0 0.00 0.43 0.00 91 1017.2
20260831125035 71 115 0.0 0.0 0.00 0.43 0.00 91 1017.1
20260831124926 71 115 0.0 0.0 0.00 0.43 0.00 91 1017.2
20260831124838 71 115 0.0 0.0 0.00 0.43 0.00 91 1017.2
20260831124729 71 115 0.0 0.0 0.00 0.43 0.00 91 1017.1
20260831124655 71 115 0.0 0.0 0.00 0.43 0.00 91 1017.1
20260831124547 71 115 0.0 0.0 0.00 0.43 0.00 91 1017.1
20260831124439 71 115 0.0 0.0 0.00 0.43 0.00 91 1017.0
20260831124330 71 115 0.0 0.0 0.00 0.43 0.00 91 1017.1
20260831124242 71 115 0.0 0.0 0.00 0.43 0.00 91 1017.1
20260831124155 71 115 0.0 0.0 0.00 0.43 0.00 91 1017.0
20260831124027 71 115 0.0 0.0 0.00 0.43 0.00 91 1017.1
20260831123938 71 115 0.0 0.0 0.00 0.43 0.00 91 1017.1
20260831123830 71 146 0.0 0.0 0.00 0.43 0.00 91 1017.1
20260831123726 71 153 0.0 0.0 0.00 0.43 0.00 91 1017.1
20260831123638 71 153 0.0 0.0 0.00 0.43 0.00 91 1017.1
20260831123530 71 153 0.0 0.0 0.00 0.43 0.00 91 1017.1
20260831123442 71 153 0.0 0.0 0.00 0.43 0.00 91 1017.0
20260831123353 71 153 0.0 0.0 0.00 0.43 0.00 91 1017.1
20260831123243 71 153 0.0 0.0 0.00 0.43 0.00 91 1017.1
20260831123204 71 153 0.0 0.0 0.00 0.43 0.00 91 1017.0
20260831123034 71 153 0.0 0.0 0.00 0.43 0.00 91 1017.1
20260831122947 71 153 0.0 0.0 0.00 0.43 0.00 91 1017.0
20260831122838 71 153 0.0 0.0 0.00 0.43 0.00 91 1017.0
20260831122750 71 153 0.0 0.0 0.00 0.43 0.00 91 1017.0
20260831122701 71 153 0.0 0.0 0.00 0.43 0.00 91 1016.9
20260831122557 71 153 0.0 0.0 0.00 0.43 0.00 91 1017.0
20260831122428 71 153 0.0 0.0 0.00 0.43 0.00 91 1017.0
20260831122341 71 153 0.0 0.0 0.00 0.43 0.00 91 1016.9
20260831122253 71 153 0.0 0.0 0.00 0.43 0.00 91 1016.9
20260831122206 71 153 0.0 0.0 0.00 0.43 0.00 91 1016.9
20260831122118 71 153 0.0 0.0 0.00 0.43 0.00 91 1016.9
20260831122031 71 153 0.0 0.0 0.00 0.43 0.00 91 1016.9
20260831121901 71 153 0.0 0.0 0.00 0.43 0.00 91 1016.9
20260831121813 71 153 0.0 0.0 0.00 0.43 0.00 91 1017.0
20260831121714 71 153 0.0 0.0 0.00 0.43 0.00 91 1016.8
20260831121544 71 153 0.0 0.0 0.00 0.43 0.00 91 1016.8
20260831121435 71 153 0.0 0.0 0.00 0.43 0.00 91 1016.8
20260831121331 71 153 0.0 0.0 0.00 0.43 0.00 91 1016.9
20260831121223 71 153 0.0 0.0 0.00 0.43 0.00 91 1016.9
20260831121134 71 153 0.0 0.0 0.00 0.43 0.00 91 1016.8
20260831121027 71 153 0.0 0.0 0.00 0.43 0.00 91 1016.8
20260831120940 71 153 0.0 0.0 0.00 0.43 0.00 91 1016.8
20260831120832 72 153 0.0 0.0 0.00 0.43 0.00 91 1016.7
20260831120724 71 153 0.0 0.0 0.00 0.43 0.00 91 1016.7
20260831120636 72 153 0.0 0.0 0.00 0.43 0.00 91 1016.8
20260831120553 72 153 0.0 0.0 0.00 0.43 0.00 91 1016.8
20260831120424 72 153 0.0 5.0 0.00 0.43 0.00 91 1016.7
20260831120337 72 153 0.0 5.0 0.00 0.43 0.00 91 1016.7
20260831120228 72 153 0.0 5.0 0.00 0.43 0.00 90 1016.6
20260831120151 72 153 0.0 5.0 0.00 0.43 0.00 91 1016.6
20260831120043 72 153 0.0 5.0 0.00 0.43 0.00 90 1016.6
20260831115956 72 153 0.0 5.0 0.00 0.43 0.00 91 1016.5
20260831115826 71 153 0.0 5.0 0.00 0.43 0.00 90 1016.5
20260831115738 71 153 0.0 5.0 0.00 0.43 0.00 90 1016.5
20260831115634 71 153 0.0 5.0 0.00 0.43 0.00 90 1016.4
20260831115546 71 153 1.0 5.0 0.00 0.43 0.00 91 1016.3
20260831115436 71 153 1.0 5.0 0.00 0.43 0.00 91 1016.4
20260831115329 71 146 1.0 4.0 0.00 0.43 0.00 91 1016.4
20260831115240 71 173 1.0 4.0 0.00 0.43 0.00 91 1016.2
20260831115132 71 150 1.0 6.0 0.00 0.43 0.00 91 1016.3
20260831115024 71 152 0.0 6.0 0.00 0.43 0.00 91 1016.2
20260831114935 71 144 0.0 6.0 0.00 0.43 0.00 91 1016.3
20260831114828 71 144 1.0 6.0 0.00 0.43 0.00 91 1016.2
20260831114724 71 143 1.0 6.0 0.00 0.43 0.00 91 1016.2
20260831114647 71 159 1.0 6.0 0.00 0.43 0.00 91 1016.1
20260831114537 71 159 1.0 6.0 0.00 0.43 0.00 91 1016.2
20260831114427 71 151 3.0 6.0 0.00 0.43 0.00 91 1016.1
20260831114339 71 149 2.0 5.0 0.00 0.43 0.00 91 1016.0
20260831114232 71 151 1.0 5.0 0.00 0.43 0.00 91 1016.2
20260831114124 71 151 1.0 5.0 0.00 0.43 0.00 91 1016.1
20260831114035 71 151 1.0 5.0 0.00 0.43 0.00 91 1016.1
20260831113932 71 190 0.0 4.0 0.00 0.43 0.00 91 1016.1
20260831113823 71 142 0.0 4.0 0.00 0.43 0.00 91 1016.2
20260831113735 71 142 0.0 4.0 0.00 0.43 0.00 91 1016.1
20260831113647 71 177 1.0 4.0 0.00 0.43 0.00 91 1016.1
20260831113559 71 177 1.0 4.0 0.00 0.43 0.00 91 1016.1
20260831113512 71 146 2.0 4.0 0.00 0.43 0.00 91 1016.0
20260831113404 71 153 1.0 5.0 0.00 0.43 0.00 91 1016.0
20260831113242 71 174 1.0 5.0 0.00 0.43 0.00 91 1016.1
20260831113144 71 159 1.0 5.0 0.00 0.43 0.00 91 1016.1
20260831113035 71 159 1.0 5.0 0.00 0.43 0.00 91 1016.0
20260831112927 71 153 1.0 5.0 0.00 0.43 0.00 92 1016.0
20260831112842 71 149 1.0 5.0 0.00 0.43 0.00 92 1016.0
20260831112734 71 153 1.0 5.0 0.00 0.43 0.00 92 1016.0
20260831112626 71 153 2.0 5.0 0.00 0.43 0.00 92 1016.0
20260831112536 71 152 2.0 4.0 0.00 0.43 0.00 92 1016.0
20260831112429 71 160 1.0 3.0 0.00 0.43 0.00 92 1016.0
20260831112341 71 167 1.0 3.0 0.00 0.43 0.00 92 1016.1
20260831112233 71 149 1.0 5.0 0.00 0.43 0.00 92 1016.1
20260831112124 71 165 1.0 5.0 0.00 0.43 0.00 92 1016.1
20260831112041 71 158 0.0 5.0 0.00 0.43 0.00 92 1016.0
20260831111934 71 143 1.0 5.0 0.00 0.43 0.00 92 1016.0
20260831111826 71 167 2.0 5.0 0.00 0.43 0.00 92 1016.1
20260831111738 71 163 2.0 5.0 0.00 0.43 0.00 92 1016.0
20260831111701 71 154 1.0 5.0 0.00 0.43 0.00 92 1016.0
20260831111551 71 157 1.0 5.0 0.00 0.43 0.00 93 1016.0
20260831111423 70 165 2.0 5.0 0.00 0.43 0.00 93 1016.0
20260831111334 70 219 1.0 5.0 0.00 0.43 0.00 93 1016.0
20260831111227 70 157 1.0 4.0 0.00 0.43 0.00 93 1016.1
20260831111123 70 150 1.0 4.0 0.00 0.43 0.00 93 1016.0
20260831111036 70 208 2.0 4.0 0.00 0.43 0.00 93 1016.0
20260831110928 70 142 1.0 3.0 0.00 0.43 0.00 93 1016.1
20260831110841 70 214 1.0 3.0 0.00 0.43 0.00 93 1016.0
20260831110752 70 158 1.0 3.0 0.00 0.43 0.00 93 1016.0
20260831110641 70 158 0.0 3.0 0.00 0.43 0.00 93 1016.0
20260831110553 70 150 0.0 0.0 0.00 0.43 0.00 93 1016.0
20260831110424 70 150 0.0 1.0 0.00 0.43 0.00 93 1016.0
20260831110337 70 150 0.0 2.0 0.00 0.43 0.00 93 1016.0
20260831110231 70 149 0.0 3.0 0.00 0.43 0.00 93 1016.0
20260831110155 70 196 0.0 3.0 0.00 0.43 0.00 93 1016.0
20260831110026 70 184 0.0 3.0 0.00 0.43 0.00 93 1016.0
20260831105938 70 184 0.0 3.0 0.00 0.43 0.00 93 1016.0
20260831105830 71 173 0.0 3.0 0.00 0.43 0.00 93 1016.0
20260831105742 70 173 0.0 3.0 0.00 0.43 0.00 93 1016.0
20260831105634 70 179 1.0 3.0 0.00 0.43 0.00 93 1015.9
20260831105546 70 176 1.0 3.0 0.00 0.43 0.00 93 1016.0
20260831105459 70 184 1.0 3.0 0.00 0.43 0.00 93 1016.0
20260831105334 70 186 1.0 3.0 0.00 0.43 0.00 93 1015.9
20260831105226 70 192 1.0 4.0 0.00 0.43 0.00 93 1015.9
20260831105139 70 159 1.0 3.0 0.00 0.43 0.00 93 1015.8
20260831105051 70 187 0.0 3.0 0.00 0.43 0.00 93 1015.9
20260831104923 70 154 0.0 2.0 0.00 0.43 0.00 93 1015.9
20260831104835 70 154 0.0 3.0 0.00 0.43 0.00 93 1015.9
20260831104728 70 154 1.0 4.0 0.00 0.43 0.00 93 1015.9
20260831104650 70 154 1.0 4.0 0.00 0.43 0.00 93 1015.9
20260831104541 70 178 0.0 4.0 0.00 0.43 0.00 93 1016.0
20260831104436 70 146 0.0 4.0 0.00 0.43 0.00 93 1015.9
20260831104348 70 146 0.0 4.0 0.00 0.43 0.00 93 1016.0
20260831104300 70 146 1.0 4.0 0.00 0.43 0.00 93 1016.0
20260831104212 70 146 1.0 4.0 0.00 0.43 0.00 93 1016.0
20260831104102 70 146 1.0 4.0 0.00 0.43 0.00 93 1016.0
20260831103953 70 146 0.0 3.0 0.00 0.43 0.00 93 1016.0
20260831103825 70 146 0.0 3.0 0.00 0.43 0.00 93 1016.0
20260831103737 70 145 0.0 3.0 0.00 0.43 0.00 93 1015.9
20260831103629 70 145 0.0 3.0 0.00 0.43 0.00 93 1015.9
20260831103541 70 145 1.0 3.0 0.00 0.43 0.00 93 1015.9
20260831103454 70 151 1.0 3.0 0.00 0.43 0.00 93 1016.0
20260831103328 70 151 0.0 3.0 0.00 0.43 0.00 93 1016.0
20260831103237 70 151 0.0 3.0 0.00 0.43 0.00 93 1016.0
20260831103200 70 151 0.0 3.0 0.00 0.43 0.00 93 1016.0
20260831103031 70 151 0.0 3.0 0.00 0.43 0.00 93 1016.1
20260831102942 70 151 0.0 5.0 0.00 0.43 0.00 93 1016.1
20260831102833 70 151 1.0 5.0 0.00 0.43 0.00 93 1016.0
20260831102724 71 151 1.0 5.0 0.00 0.43 0.00 93 1016.1
20260831102635 70 151 1.0 5.0 0.00 0.43 0.00 93 1016.1
20260831102530 70 151 1.0 5.0 0.00 0.43 0.00 93 1016.1
20260831102442 70 151 1.0 5.0 0.00 0.43 0.00 93 1016.1
20260831102354 70 150 1.0 5.0 0.00 0.43 0.00 93 1016.1
20260831102224 70 149 1.0 5.0 0.00 0.43 0.00 93 1016.2
20260831102135 70 149 0.0 2.0 0.00 0.43 0.00 93 1016.1
20260831102027 71 149 0.0 2.0 0.00 0.43 0.00 93 1016.2
20260831101940 71 149 0.0 2.0 0.00 0.43 0.00 93 1016.0
20260831101832 71 149 0.0 2.0 0.00 0.43 0.00 93 1016.2
20260831101723 71 149 0.0 3.0 0.00 0.43 0.00 93 1016.1
20260831101649 71 149 0.0 3.0 0.00 0.43 0.00 93 1016.1
20260831101541 71 149 0.0 3.0 0.00 0.43 0.00 93 1016.1
20260831101432 71 149 0.0 3.0 0.00 0.43 0.00 93 1016.1
20260831101344 71 149 1.0 4.0 0.00 0.43 0.00 93 1016.1
20260831101235 71 149 0.0 4.0 0.00 0.43 0.00 93 1016.1
20260831101146 71 172 0.0 4.0 0.00 0.43 0.00 93 1016.1
20260831101038 71 158 1.0 4.0 0.00 0.43 0.00 93 1016.0
20260831100929 71 158 1.0 4.0 0.00 0.43 0.00 93 1016.0
20260831100841 71 156 1.0 4.0 0.00 0.43 0.00 93 1016.0
20260831100733 71 156 1.0 4.0 0.00 0.43 0.00 93 1016.0
20260831100629 71 136 1.0 4.0 0.00 0.43 0.00 93 1016.0
20260831100542 71 153 1.0 4.0 0.00 0.43 0.00 93 1016.0
20260831100434 71 189 1.0 3.0 0.00 0.43 0.00 93 1016.0
20260831100345 71 155 1.0 4.0 0.00 0.43 0.00 93 1016.0
20260831100235 71 171 0.0 4.0 0.00 0.43 0.00 93 1016.0
20260831100158 71 171 1.0 5.0 0.00 0.43 0.00 93 1016.0
20260831100029 71 171 1.0 5.0 0.00 0.43 0.00 93 1016.0
20260831095941 71 144 1.0 5.0 0.00 0.43 0.00 93 1016.0
20260831095832 71 144 2.0 5.0 0.00 0.43 0.00 93 1016.0
20260831095728 71 152 2.0 5.0 0.00 0.43 0.00 93 1016.0
20260831095641 71 151 2.0 5.0 0.00 0.43 0.00 93 1016.0
20260831095552 71 151 2.0 5.0 0.00 0.43 0.00 93 1016.0
20260831095503 71 153 1.0 5.0 0.00 0.43 0.00 93 1016.0
20260831095354 71 137 0.0 4.0 0.00 0.43 0.00 93 1016.0
20260831095225 71 209 0.0 4.0 0.00 0.43 0.00 93 1016.0
20260831095138 71 209 1.0 4.0 0.00 0.43 0.00 93 1016.0
20260831095029 71 171 1.0 4.0 0.00 0.43 0.00 93 1015.9
20260831094940 71 171 1.0 4.0 0.00 0.43 0.00 93 1016.0
20260831094836 71 171 1.0 4.0 0.00 0.43 0.00 93 1016.0
20260831094729 71 171 1.0 4.0 0.00 0.43 0.00 93 1016.0
20260831094650 71 171 0.0 5.0 0.00 0.43 0.00 93 1016.0
20260831094522 71 167 0.0 5.0 0.00 0.43 0.00 93 1016.1
20260831094435 71 171 0.0 5.0 0.00 0.43 0.00 93 1016.1
20260831094346 71 171 0.0 5.0 0.00 0.43 0.00 93 1016.1
20260831094258 71 171 0.0 5.0 0.00 0.43 0.00 93 1016.1
20260831094148 71 171 0.0 5.0 0.00 0.43 0.00 93 1016.1
20260831094100 71 171 0.0 5.0 0.00 0.43 0.00 93 1016.2
20260831093930 71 171 1.0 5.0 0.00 0.43 0.00 93 1016.1
20260831093825 71 141 1.0 5.0 0.00 0.43 0.00 93 1016.0
20260831093737 71 157 0.0 6.0 0.00 0.43 0.00 93 1016.1
20260831093648 71 157 1.0 6.0 0.00 0.43 0.00 93 1016.0
20260831093538 71 157 2.0 6.0 0.00 0.43 0.00 93 1016.1
20260831093430 71 151 2.0 7.0 0.00 0.43 0.00 93 1016.0
20260831093341 71 142 2.0 7.0 0.00 0.43 0.00 93 1016.0
20260831093230 71 148 2.0 7.0 0.00 0.43 0.00 93 1016.0
20260831093152 71 151 2.0 7.0 0.00 0.43 0.00 93 1016.0
20260831093042 71 166 3.0 7.0 0.00 0.43 0.00 93 1016.0
20260831092934 71 149 3.0 7.0 0.00 0.43 0.00 93 1015.9
20260831092830 71 167 3.0 7.0 0.00 0.43 0.00 93 1015.9
20260831092722 71 155 3.0 7.0 0.00 0.43 0.00 93 1015.9
20260831092634 71 153 3.0 7.0 0.00 0.43 0.00 93 1015.9
20260831092526 71 153 2.0 5.0 0.00 0.43 0.00 93 1016.0
20260831092439 71 159 2.0 5.0 0.00 0.43 0.00 93 1016.0
20260831092330 71 155 2.0 5.0 0.00 0.43 0.00 93 1016.0
20260831092242 71 148 2.0 5.0 0.00 0.43 0.00 93 1016.0
20260831092133 71 142 1.0 5.0 0.00 0.43 0.00 93 1016.0
20260831092029 71 148 2.0 5.0 0.00 0.43 0.00 93 1016.0
20260831091942 71 147 2.0 5.0 0.00 0.43 0.00 93 1016.0
20260831091834 71 144 2.0 5.0 0.00 0.43 0.00 93 1016.0
20260831091746 71 148 2.0 5.0 0.00 0.43 0.00 93 1016.1
20260831091647 71 148 2.0 5.0 0.00 0.43 0.00 93 1016.1
20260831091539 71 148 2.0 5.0 0.00 0.43 0.00 93 1016.1
20260831091431 71 151 2.0 5.0 0.00 0.43 0.00 93 1016.1
20260831091342 71 152 2.0 5.0 0.00 0.43 0.00 93 1016.1
20260831091235 71 152 2.0 5.0 0.00 0.43 0.00 93 1016.2
20260831091147 71 165 2.0 5.0 0.00 0.43 0.00 93 1016.1
20260831091101 71 153 2.0 5.0 0.00 0.43 0.00 93 1016.1
20260831090932 71 154 2.0 5.0 0.00 0.43 0.00 93 1016.2
20260831090843 71 157 1.0 5.0 0.00 0.43 0.00 92 1016.2
20260831090734 71 157 2.0 5.0 0.00 0.43 0.00 92 1016.2
20260831090647 71 157 2.0 5.0 0.00 0.43 0.00 92 1016.2
20260831090558 71 169 3.0 5.0 0.00 0.43 0.00 92 1016.2
20260831090448 71 167 3.0 5.0 0.00 0.43 0.00 92 1016.3
20260831090400 71 167 1.0 4.0 0.00 0.43 0.00 92 1016.2
20260831090250 71 165 1.0 3.0 0.00 0.44 0.00 93 1016.2
20260831090153 71 165 1.0 5.0 0.00 0.44 0.00 93 1016.2
20260831090023 71 165 0.0 6.0 0.00 0.44 0.00 92 1016.2
20260831085939 71 165 0.0 6.0 0.00 0.44 0.00 93 1016.2
20260831085831 71 165 0.0 6.0 0.00 0.44 0.00 93 1016.2
20260831085723 71 165 1.0 6.0 0.00 0.44 0.00 93 1016.2
20260831085634 71 180 1.0 6.0 0.00 0.44 0.00 93 1016.2
20260831085527 71 155 1.0 6.0 0.00 0.44 0.00 93 1016.1
20260831085439 71 155 2.0 6.0 0.00 0.44 0.00 93 1016.0
20260831085351 71 155 2.0 6.0 0.00 0.44 0.00 93 1016.1
20260831085242 71 155 2.0 6.0 0.00 0.44 0.00 93 1016.1
20260831085133 71 157 1.0 5.0 0.00 0.44 0.00 93 1016.0
20260831085048 71 157 1.0 5.0 0.00 0.44 0.00 93 1016.0
20260831085001 71 157 1.0 5.0 0.00 0.44 0.00 93 1016.0
20260831084852 71 157 2.0 5.0 0.00 0.44 0.00 92 1016.1
20260831084744 71 157 2.0 5.0 0.00 0.44 0.00 92 1016.1
20260831084705 72 141 2.0 5.0 0.00 0.44 0.00 93 1016.1
20260831084557 71 154 2.0 6.0 0.00 0.44 0.00 93 1016.1
20260831084429 71 154 2.0 5.0 0.00 0.44 0.00 93 1016.1
20260831084341 71 148 2.0 5.0 0.00 0.44 0.00 93 1016.0
20260831084253 71 159 2.0 5.0 0.00 0.44 0.00 93 1016.1
20260831084125 71 150 2.0 5.0 0.00 0.44 0.00 92 1016.0
20260831084036 71 150 2.0 5.0 0.00 0.44 0.00 92 1016.1
20260831083931 71 150 2.0 6.0 0.00 0.44 0.00 92 1016.1
20260831083824 71 150 2.0 6.0 0.00 0.44 0.00 92 1016.0
20260831083736 71 150 2.0 6.0 0.00 0.44 0.00 92 1016.1
20260831083627 71 150 2.0 6.0 0.00 0.44 0.00 93 1016.1
20260831083540 71 150 1.0 6.0 0.00 0.44 0.00 93 1016.1
20260831083432 71 150 1.0 6.0 0.00 0.44 0.00 93 1016.2
20260831083345 71 150 1.0 6.0 0.00 0.44 0.00 92 1016.2
20260831083233 71 150 2.0 6.0 0.00 0.44 0.00 92 1016.2
20260831083156 71 150 2.0 6.0 0.00 0.44 0.00 92 1016.2
20260831083031 71 150 1.0 5.0 0.00 0.44 0.00 92 1016.1
20260831082924 71 150 1.0 5.0 0.00 0.44 0.00 92 1016.2
20260831082835 71 148 0.0 3.0 0.00 0.44 0.00 92 1016.1
20260831082728 71 148 1.0 3.0 0.00 0.44 0.00 92 1016.0
20260831082640 71 148 1.0 3.0 0.00 0.44 0.00 92 1016.1
20260831082532 71 148 0.0 3.0 0.00 0.44 0.00 92 1016.0
20260831082423 71 152 0.0 3.0 0.00 0.44 0.00 92 1016.0
20260831082335 71 156 0.0 3.0 0.00 0.44 0.00 92 1016.1
20260831082230 71 171 0.0 3.0 0.00 0.44 0.00 92 1016.0
20260831082142 71 171 1.0 3.0 0.00 0.44 0.00 92 1016.1
20260831082035 71 137 1.0 3.0 0.00 0.44 0.00 92 1016.1
20260831081926 71 180 1.0 5.0 0.00 0.44 0.00 92 1016.1
20260831081838 71 180 1.0 5.0 0.00 0.44 0.00 92 1016.0
20260831081730 72 180 1.0 5.0 0.00 0.44 0.00 92 1016.0
20260831081654 72 180 1.0 5.0 0.00 0.44 0.00 92 1016.0
20260831081526 71 180 1.0 5.0 0.00 0.44 0.00 92 1016.0
20260831081423 71 155 1.0 5.0 0.00 0.44 0.00 92 1016.0
20260831081335 71 155 1.0 5.0 0.00 0.44 0.00 92 1016.0
20260831081248 71 152 1.0 5.0 0.00 0.44 0.00 92 1016.1
20260831081139 71 152 1.0 5.0 0.00 0.44 0.00 92 1016.0
20260831081031 71 152 1.0 5.0 0.00 0.44 0.00 92 1016.0
20260831080923 71 152 1.0 5.0 0.00 0.44 0.00 92 1016.0
20260831080834 71 152 1.0 5.0 0.00 0.44 0.00 92 1016.0
20260831080747 71 152 1.0 5.0 0.00 0.44 0.00 92 1016.0
20260831080658 71 152 2.0 5.0 0.00 0.44 0.00 92 1016.1
20260831080528 71 152 1.0 5.0 0.00 0.44 0.00 92 1016.1
20260831080425 71 152 1.0 5.0 0.00 0.44 0.00 92 1016.2
20260831080337 71 156 1.0 5.0 0.00 0.44 0.00 92 1016.1
20260831080224 71 155 2.0 5.0 0.00 0.44 0.00 92 1016.0
20260831080146 71 155 3.0 5.0 0.00 0.44 0.00 92 1016.1
20260831080037 71 159 2.0 5.0 0.00 0.44 0.00 92 1016.2
20260831075950 71 145 2.0 4.0 0.00 0.44 0.00 92 1016.2
20260831075902 71 145 1.0 3.0 0.00 0.44 0.00 91 1016.2
20260831075753 71 145 1.0 2.0 0.00 0.44 0.00 91 1016.2
20260831075624 71 145 0.0 1.0 0.00 0.44 0.00 91 1016.3
20260831075535 72 145 0.0 1.0 0.00 0.44 0.00 91 1016.3
20260831075432 72 145 0.0 1.0 0.00 0.44 0.00 91 1016.3
20260831075324 72 145 0.0 1.0 0.00 0.44 0.00 91 1016.4
20260831075234 72 145 0.0 3.0 0.00 0.44 0.00 91 1016.3
20260831075146 72 145 0.0 3.0 0.00 0.44 0.00 91 1016.3
20260831075057 72 145 0.0 4.0 0.00 0.44 0.00 91 1016.4
20260831074928 72 145 0.0 4.0 0.00 0.44 0.00 91 1016.5
20260831074841 72 145 0.0 4.0 0.00 0.44 0.00 91 1016.3
20260831074752 72 145 0.0 4.0 0.00 0.44 0.00 92 1016.4
20260831074654 72 145 0.0 4.0 0.00 0.44 0.00 92 1016.4
20260831074544 72 145 1.0 4.0 0.00 0.44 0.00 91 1016.2
20260831074459 72 145 2.0 4.0 0.00 0.44 0.00 91 1016.2
20260831074331 72 145 3.0 4.0 0.00 0.44 0.00 91 1016.2
20260831074242 72 145 3.0 4.0 0.00 0.44 0.00 91 1016.2
20260831074133 72 145 2.0 3.0 0.00 0.44 0.00 91 1016.2
20260831074025 72 145 1.0 3.0 0.00 0.44 0.00 91 1016.2
20260831073938 72 145 0.0 3.0 0.00 0.44 0.00 91 1016.3
20260831073829 72 145 1.0 4.0 0.00 0.44 0.00 91 1016.3
20260831073741 72 145 1.0 4.0 0.00 0.44 0.00 91 1016.3
20260831073636 72 145 2.0 4.0 0.00 0.44 0.00 91 1016.3
20260831073548 72 145 2.0 4.0 0.00 0.44 0.00 91 1016.4
20260831073438 72 145 2.0 4.0 0.00 0.44 0.00 91 1016.3
20260831073330 72 144 2.0 4.0 0.00 0.44 0.00 91 1016.4
20260831073241 72 144 2.0 4.0 0.00 0.44 0.00 91 1016.4
20260831073202 72 144 2.0 4.0 0.00 0.44 0.00 91 1016.4
20260831073033 72 140 2.0 4.0 0.00 0.44 0.00 90 1016.3
20260831072946 72 140 2.0 4.0 0.00 0.44 0.00 90 1016.4
20260831072838 72 140 2.0 4.0 0.00 0.44 0.00 91 1016.4
20260831072730 72 140 1.0 4.0 0.00 0.44 0.00 91 1016.4
20260831072626 72 159 0.0 0.0 0.00 0.44 0.00 90 1016.5
20260831072540 72 167 0.0 0.0 0.00 0.44 0.00 90 1016.5
20260831072451 72 196 0.0 0.0 0.00 0.44 0.00 90 1016.5
20260831072323 72 196 0.0 0.0 0.00 0.44 0.00 90 1016.5
20260831072236 72 196 0.0 0.0 0.00 0.44 0.00 90 1016.4
20260831072127 72 196 0.0 0.0 0.00 0.44 0.00 90 1016.5
20260831072040 72 196 0.0 0.0 0.00 0.44 0.00 90 1016.5
20260831071932 72 196 0.0 0.0 0.00 0.44 0.00 90 1016.4
20260831071828 72 196 0.0 0.0 0.00 0.44 0.00 90 1016.5
20260831071740 72 196 0.0 0.0 0.00 0.44 0.00 90 1016.6
20260831071703 72 196 0.0 0.0 0.00 0.44 0.00 90 1016.6
20260831071535 72 196 0.0 0.0 0.00 0.44 0.00 90 1016.6
20260831071448 72 196 0.0 0.0 0.00 0.44 0.00 90 1016.5
20260831071340 72 282 0.0 0.0 0.00 0.44 0.00 90 1016.5
20260831071251 72 282 0.0 0.0 0.00 0.44 0.00 90 1016.5
20260831071204 72 282 0.0 0.0 0.00 0.44 0.00 90 1016.6
20260831071035 72 282 0.0 0.0 0.00 0.44 0.00 90 1016.5
20260831070927 72 282 0.0 0.0 0.00 0.44 0.00 90 1016.5
20260831070823 73 282 0.0 0.0 0.00 0.44 0.00 90 1016.6
20260831070735 72 282 0.0 0.0 0.00 0.44 0.00 90 1016.6
20260831070648 73 282 0.0 0.0 0.00 0.44 0.00 90 1016.5
20260831070538 73 282 0.0 0.0 0.00 0.44 0.00 90 1016.6
20260831070430 73 282 0.0 0.0 0.00 0.44 0.00 90 1016.5
20260831070342 73 282 0.0 0.0 0.00 0.44 0.00 90 1016.5
20260831070242 73 282 0.0 1.0 0.00 0.44 0.00 90 1016.5
20260831070145 73 282 0.0 1.0 0.00 0.44 0.00 90 1016.5
20260831070036 73 282 0.0 2.0 0.00 0.44 0.00 90 1016.4
20260831065932 73 282 0.0 2.0 0.00 0.44 0.00 90 1016.5
20260831065844 73 282 0.0 2.0 0.00 0.44 0.00 89 1016.5
20260831065753 73 282 0.0 2.0 0.00 0.44 0.00 89 1016.4
20260831065623 73 282 0.0 2.0 0.00 0.44 0.00 89 1016.4
20260831065535 73 282 0.0 3.0 0.00 0.44 0.00 89 1016.3
20260831065448 73 282 0.0 3.0 0.00 0.44 0.00 89 1016.3
20260831065359 73 282 0.0 3.0 0.00 0.44 0.00 89 1016.4
20260831065230 73 282 0.0 3.0 0.00 0.44 0.00 89 1016.3
20260831065142 73 282 0.0 3.0 0.00 0.44 0.00 89 1016.3
20260831065034 73 282 0.0 3.0 0.00 0.44 0.00 89 1016.2
20260831064930 73 282 0.0 3.0 0.00 0.44 0.00 89 1016.2
20260831064842 73 282 1.0 3.0 0.00 0.44 0.00 89 1016.2
20260831064754 73 282 1.0 3.0 0.00 0.44 0.00 89 1016.1
20260831064656 73 152 1.0 3.0 0.00 0.44 0.00 89 1016.1
20260831064547 73 272 0.0 3.0 0.00 0.44 0.00 89 1016.2
20260831064500 73 169 1.0 3.0 0.00 0.44 0.00 89 1016.2
20260831064351 73 196 1.0 3.0 0.00 0.44 0.00 89 1016.2
20260831064303 73 163 1.0 3.0 0.00 0.44 0.00 89 1016.1
20260831064135 73 154 1.0 2.0 0.00 0.44 0.00 89 1016.1
20260831064048 73 212 0.0 2.0 0.00 0.44 0.00 89 1016.1
20260831064001 73 161 0.0 3.0 0.00 0.44 0.00 89 1016.1
20260831063857 73 207 0.0 3.0 0.00 0.44 0.00 89 1016.1
20260831063727 73 142 0.0 3.0 0.00 0.44 0.00 89 1016.1
20260831063639 73 142 0.0 3.0 0.00 0.44 0.00 89 1016.1
20260831063531 73 142 0.0 4.0 0.00 0.44 0.00 89 1016.0
20260831063336 73 175 1.0 4.0 0.00 0.44 0.00 89 1016.0
20260831063226 73 169 0.0 4.0 0.00 0.44 0.00 89 1016.1
20260831063149 73 148 0.0 4.0 0.00 0.44 0.00 89 1016.1
20260831063040 73 148 1.0 4.0 0.00 0.44 0.00 88 1016.0
20260831062955 73 148 1.0 4.0 0.00 0.44 0.00 89 1016.0
20260831062907 73 154 1.0 4.0 0.00 0.44 0.00 88 1016.0
20260831062758 73 167 1.0 4.0 0.00 0.44 0.00 88 1016.0
20260831062649 73 217 1.0 2.0 0.00 0.44 0.00 88 1016.0
20260831062541 73 217 0.0 2.0 0.00 0.44 0.00 88 1016.0
20260831062434 73 232 0.0 2.0 0.00 0.44 0.00 88 1016.0
20260831062325 73 232 0.0 3.0 0.00 0.44 0.00 88 1016.0
20260831062237 74 232 1.0 3.0 0.00 0.44 0.00 88 1015.9
20260831062128 74 259 1.0 3.0 0.00 0.44 0.00 88 1016.0
20260831062024 74 184 1.0 3.0 0.00 0.44 0.00 88 1016.0
20260831061935 74 180 1.0 3.0 0.00 0.44 0.00 88 1016.0
20260831061847 74 129 1.0 3.0 0.00 0.44 0.00 88 1016.1
20260831061759 74 251 1.0 3.0 0.00 0.44 0.00 88 1016.1
20260831061700 74 172 0.0 3.0 0.00 0.44 0.00 88 1016.1
20260831061531 74 217 2.0 3.0 0.00 0.44 0.00 88 1016.0
20260831061423 74 226 1.0 3.0 0.00 0.44 0.00 88 1016.0
20260831061334 74 239 1.0 4.0 0.00 0.44 0.00 88 1016.0
20260831061227 74 158 1.0 4.0 0.00 0.44 0.00 88 1015.9
20260831061122 74 203 1.0 4.0 0.00 0.44 0.00 88 1016.0
20260831061034 74 173 1.0 4.0 0.00 0.44 0.00 88 1016.0
20260831060927 74 154 0.0 5.0 0.00 0.44 0.00 88 1016.1
20260831060840 74 176 0.0 5.0 0.00 0.44 0.00 88 1016.0
20260831060731 74 163 1.0 5.0 0.00 0.44 0.00 88 1016.1
20260831060644 74 166 1.0 5.0 0.00 0.44 0.00 88 1016.1
20260831060534 74 197 1.0 5.0 0.00 0.44 0.00 88 1016.0
20260831060446 74 184 1.0 5.0 0.00 0.44 0.00 88 1016.0
20260831060359 74 184 1.0 5.0 0.00 0.44 0.00 88 1016.0
20260831060312 74 184 1.0 5.0 0.00 0.44 0.00 88 1016.0
20260831060211 74 223 2.0 7.0 0.00 0.44 0.00 88 1016.0
20260831060047 74 159 1.0 7.0 0.00 0.44 0.00 88 1016.0
20260831055959 74 150 1.0 7.0 0.00 0.44 0.00 88 1016.0
20260831055850 74 167 0.0 7.0 0.00 0.44 0.00 88 1015.9
20260831055741 74 165 0.0 9.0 0.00 0.44 0.00 88 1016.0
20260831055633 74 165 1.0 9.0 0.00 0.44 0.00 88 1016.0
20260831055523 74 169 2.0 11.0 0.00 0.44 0.00 89 1015.9
20260831055436 74 148 2.0 11.0 0.00 0.44 0.00 89 1015.9
20260831055329 74 157 2.0 11.0 0.00 0.44 0.00 89 1016.0
20260831055240 74 155 2.0 11.0 0.00 0.44 0.00 89 1015.9
20260831055137 74 155 3.0 11.0 0.00 0.44 0.00 89 1016.0
20260831055028 73 151 3.0 11.0 0.00 0.44 0.00 89 1015.9
20260831054940 73 164 3.0 11.0 0.00 0.44 0.00 89 1015.8
20260831054832 73 146 4.0 11.0 0.00 0.44 0.00 89 1015.9
20260831054733 73 157 5.0 11.0 0.00 0.44 0.00 89 1015.9
20260831054625 73 160 3.0 7.0 0.00 0.44 0.00 89 1015.9
20260831054515 73 173 2.0 6.0 0.00 0.44 0.00 89 1016.0
20260831054406 73 164 1.0 6.0 0.00 0.44 0.00 89 1016.1
20260831054255 73 176 1.0 5.0 0.00 0.44 0.00 90 1016.2
20260831054130 73 148 1.0 5.0 0.00 0.44 0.00 89 1016.2
20260831054042 73 165 1.0 5.0 0.00 0.44 0.00 89 1016.2
20260831053932 73 152 2.0 5.0 0.00 0.44 0.00 89 1016.2
20260831053824 73 196 1.0 5.0 0.00 0.44 0.00 89 1016.3
20260831053736 73 149 1.0 4.0 0.00 0.44 0.00 89 1016.3
20260831053648 73 169 1.0 3.0 0.00 0.44 0.00 89 1016.4
20260831053558 73 190 1.0 7.0 0.00 0.44 0.00 89 1016.4
20260831053430 73 164 1.0 7.0 0.00 0.44 0.00 90 1016.4
20260831053341 73 164 1.0 7.0 0.00 0.44 0.00 90 1016.4
20260831053242 73 154 1.0 7.0 0.00 0.44 0.00 90 1016.5
20260831053146 73 155 1.0 7.0 0.00 0.44 0.00 90 1016.5
20260831053036 73 166 1.0 7.0 0.00 0.44 0.00 90 1016.5
20260831052928 72 155 2.0 7.0 0.00 0.44 0.00 90 1016.5
20260831052841 72 156 3.0 7.0 0.00 0.44 0.00 91 1016.5
20260831052733 72 155 3.0 7.0 0.00 0.44 0.00 91 1016.5
20260831052644 72 153 1.0 3.0 0.00 0.44 0.00 91 1016.5
20260831052556 72 148 2.0 3.0 0.00 0.44 0.00 91 1016.5
20260831052429 72 148 2.0 3.0 0.00 0.44 0.00 91 1016.7
20260831052341 72 249 1.0 3.0 0.00 0.44 0.00 91 1016.5
20260831052238 72 188 1.0 3.0 0.00 0.44 0.00 91 1016.6
20260831052129 72 150 0.0 2.0 0.00 0.44 0.00 91 1016.6
20260831052041 72 150 0.0 1.0 0.00 0.44 0.00 91 1016.7
20260831051954 72 150 0.0 0.0 0.00 0.44 0.00 91 1016.7
20260831051905 72 150 0.0 0.0 0.00 0.44 0.00 91 1016.7
20260831051754 72 150 0.0 0.0 0.00 0.44 0.00 91 1016.7
20260831051718 72 150 0.0 0.0 0.00 0.44 0.00 91 1016.7
20260831051610 72 150 0.0 0.0 0.00 0.44 0.00 90 1016.6
20260831051501 72 150 0.0 0.0 0.00 0.44 0.00 90 1016.8
20260831051331 72 150 0.0 0.0 0.00 0.44 0.00 90 1016.7
20260831051228 72 150 0.0 0.0 0.00 0.44 0.00 90 1016.7
20260831051139 72 150 0.0 0.0 0.00 0.44 0.00 90 1016.8
20260831051031 72 150 0.0 0.0 0.00 0.44 0.00 90 1016.8
20260831050942 72 150 0.0 0.0 0.00 0.44 0.00 90 1016.8
20260831050833 72 150 0.0 0.0 0.00 0.44 0.00 90 1016.8
20260831050726 72 150 0.0 0.0 0.00 0.44 0.00 90 1016.8
20260831050639 73 150 0.0 0.0 0.00 0.44 0.00 90 1016.8
20260831050531 73 150 0.0 0.0 0.00 0.44 0.00 90 1016.8
20260831050427 73 150 0.0 0.0 0.00 0.44 0.00 90 1016.8
20260831050340 73 150 0.0 0.0 0.00 0.44 0.00 90 1016.8
20260831050231 73 150 0.0 0.0 0.00 0.44 0.00 90 1016.8
20260831050154 73 150 0.0 0.0 0.00 0.44 0.00 90 1016.8
20260831050026 73 150 0.0 0.0 0.00 0.44 0.00 90 1016.7
20260831045937 73 150 0.0 0.0 0.00 0.44 0.00 90 1016.7
20260831045850 73 150 0.0 1.0 0.00 0.44 0.00 89 1016.7
20260831045802 73 150 0.0 3.0 0.00 0.44 0.00 89 1016.7
20260831045632 73 150 0.0 3.0 0.00 0.44 0.00 89 1016.7
20260831045528 73 150 0.0 3.0 0.00 0.44 0.00 89 1016.7
20260831045440 73 150 0.0 3.0 0.00 0.44 0.00 89 1016.7
20260831045331 73 150 0.0 3.0 0.00 0.44 0.00 89 1016.7
20260831045224 73 150 0.0 3.0 0.00 0.44 0.00 89 1016.6
20260831045137 73 150 0.0 3.0 0.00 0.44 0.00 89 1016.6
20260831045028 73 150 1.0 3.0 0.00 0.44 0.00 89 1016.5
20260831044941 73 150 1.0 3.0 0.00 0.44 0.00 89 1016.5
20260831044833 73 150 1.0 2.0 0.00 0.44 0.00 89 1016.5
20260831044730 73 150 1.0 2.0 0.00 0.44 0.00 89 1016.6
20260831044651 73 150 0.0 2.0 0.00 0.44 0.00 89 1016.6
20260831044542 73 150 0.0 1.0 0.00 0.44 0.00 89 1016.5
20260831044435 73 150 0.0 0.0 0.00 0.44 0.00 89 1016.5
20260831044327 73 150 0.0 0.0 0.00 0.44 0.00 89 1016.5
20260831044240 73 150 0.0 0.0 0.00 0.44 0.00 89 1016.5
20260831044133 73 150 0.0 1.0 0.00 0.44 0.00 89 1016.6
20260831044024 73 150 0.0 1.0 0.00 0.44 0.00 89 1016.5
20260831043937 73 150 0.0 1.0 0.00 0.44 0.00 89 1016.6
20260831043832 73 150 0.0 1.0 0.00 0.44 0.00 89 1016.5
20260831043744 73 150 0.0 1.0 0.00 0.44 0.00 89 1016.6
20260831043635 73 150 0.0 1.0 0.00 0.44 0.00 89 1016.6
20260831043527 73 150 0.0 3.0 0.00 0.44 0.00 89 1016.5
20260831043440 73 150 0.0 3.0 0.00 0.44 0.00 89 1016.5
20260831043333 73 150 0.0 3.0 0.00 0.44 0.00 89 1016.5
20260831043243 73 150 0.0 3.0 0.00 0.44 0.00 89 1016.6
20260831043205 73 150 0.0 3.0 0.00 0.44 0.00 89 1016.6
20260831043055 73 150 0.0 5.0 0.00 0.44 0.00 89 1016.6
20260831042930 73 150 0.0 5.0 0.00 0.44 0.00 89 1016.6
20260831042842 73 150 1.0 5.0 0.00 0.44 0.00 89 1016.5
20260831042730 73 150 1.0 5.0 0.00 0.44 0.00 89 1016.5
20260831042623 73 150 0.0 5.0 0.00 0.44 0.00 89 1016.5
20260831042535 73 150 1.0 5.0 0.00 0.44 0.00 89 1016.5
20260831042425 73 150 2.0 5.0 0.00 0.44 0.00 89 1016.4
20260831042337 73 150 2.0 5.0 0.00 0.44 0.00 89 1016.4
20260831042248 73 150 1.0 3.0 0.00 0.44 0.00 89 1016.4
20260831042140 73 150 1.0 3.0 0.00 0.44 0.00 89 1016.4
20260831042031 73 150 1.0 2.0 0.00 0.44 0.00 89 1016.4
20260831041926 73 150 1.0 2.0 0.00 0.44 0.00 89 1016.5
20260831041839 73 150 0.0 2.0 0.00 0.44 0.00 89 1016.5
20260831041752 73 150 1.0 2.0 0.00 0.44 0.00 89 1016.6
20260831041642 73 150 1.0 2.0 0.00 0.44 0.00 89 1016.5
20260831041511 73 150 0.0 2.0 0.00 0.44 0.00 89 1016.5
20260831041402 73 150 0.0 0.0 0.00 0.44 0.00 89 1016.5
20260831041315 73 150 0.0 0.0 0.00 0.44 0.00 89 1016.7
20260831041205 73 150 0.0 0.0 0.00 0.44 0.00 89 1016.7
20260831041036 73 150 0.0 0.0 0.00 0.44 0.00 89 1016.7
20260831040927 73 150 0.0 0.0 0.00 0.44 0.00 89 1016.7
20260831040823 73 150 0.0 0.0 0.00 0.44 0.00 89 1016.7
20260831040735 73 150 0.0 0.0 0.00 0.44 0.00 89 1016.7
20260831040646 73 150 0.0 0.0 0.00 0.44 0.00 90 1016.7
20260831040538 73 150 0.0 0.0 0.00 0.44 0.00 89 1016.6
20260831040450 73 150 0.0 0.0 0.00 0.44 0.00 90 1016.7
20260831040340 73 150 0.0 0.0 0.00 0.44 0.00 90 1016.7
20260831040230 73 150 0.0 1.0 0.00 0.44 0.44 90 1016.7
20260831040151 73 150 0.0 1.0 0.00 0.44 0.44 90 1016.7
20260831040042 73 150 0.0 1.0 0.00 0.44 0.44 90 1016.8
20260831035925 74 150 0.0 2.0 0.00 0.44 0.44 90 1016.8
20260831035838 73 150 0.0 2.0 0.00 0.44 0.44 90 1016.7
20260831035735 73 150 0.0 2.0 0.00 0.44 0.44 90 1016.7
20260831035628 73 150 0.0 2.0 0.00 0.44 0.44 90 1016.7
20260831035539 73 150 0.0 2.0 0.00 0.44 0.44 90 1016.7
20260831035430 73 150 0.0 2.0 0.00 0.44 0.44 90 1016.7
20260831035341 73 150 0.0 2.0 0.00 0.44 0.44 90 1016.7
20260831035234 73 150 0.0 2.0 0.00 0.44 0.44 90 1016.7
20260831035146 73 150 1.0 2.0 0.00 0.44 0.44 90 1016.6
20260831035058 73 150 1.0 2.0 0.00 0.44 0.44 90 1016.7
20260831034933 73 148 1.0 2.0 0.00 0.44 0.44 90 1016.6
20260831034825 73 192 0.0 1.0 0.00 0.44 0.44 90 1016.6
20260831034737 73 192 0.0 1.0 0.00 0.44 0.44 90 1016.6
20260831034700 73 202 0.0 0.0 0.00 0.44 0.44 90 1016.6
20260831034531 73 227 0.0 0.0 0.00 0.44 0.44 90 1016.7
20260831034444 73 227 0.0 0.0 0.00 0.44 0.44 90 1016.7
20260831034355 73 227 0.0 0.0 0.00 0.44 0.44 90 1016.7
20260831034226 73 227 0.0 0.0 0.00 0.44 0.44 90 1016.8
20260831034138 73 227 0.0 0.0 0.00 0.44 0.44 90 1016.7
20260831034034 73 227 0.0 0.0 0.00 0.44 0.44 90 1016.7
20260831033926 73 227 0.0 0.0 0.00 0.44 0.44 90 1016.7
20260831033839 73 227 0.0 0.0 0.00 0.44 0.44 90 1016.7
20260831033731 73 227 0.0 2.0 0.00 0.44 0.44 90 1016.7
20260831033623 73 227 0.0 2.0 0.00 0.44 0.44 90 1016.7
20260831033535 73 227 0.0 2.0 0.00 0.44 0.44 90 1016.7
20260831033447 73 227 0.0 2.0 0.00 0.44 0.44 90 1016.8
20260831033359 73 227 0.0 2.0 0.00 0.44 0.44 90 1016.7
20260831033228 74 227 0.0 2.0 0.00 0.44 0.44 90 1016.6
20260831033154 74 227 0.0 2.0 0.00 0.44 0.44 90 1016.6
20260831033046 74 227 0.0 2.0 0.00 0.44 0.44 90 1016.7
20260831032958 74 227 1.0 2.0 0.00 0.44 0.44 90 1016.7
20260831032849 74 227 1.0 2.0 0.00 0.44 0.44 90 1016.6
20260831032801 74 227 0.0 1.0 0.00 0.44 0.44 89 1016.6
20260831032651 74 227 0.0 0.0 0.00 0.44 0.44 89 1016.7
20260831032542 74 227 0.0 0.0 0.00 0.44 0.44 89 1016.6
20260831032455 74 227 0.0 0.0 0.00 0.44 0.44 89 1016.7
20260831032325 74 227 0.0 0.0 0.00 0.44 0.44 89 1016.6
20260831032237 74 227 0.0 0.0 0.00 0.44 0.44 89 1016.6
20260831032129 74 227 0.0 0.0 0.00 0.44 0.44 89 1016.7
20260831032044 74 227 0.0 0.0 0.00 0.44 0.44 89 1016.6
20260831031957 74 227 0.0 0.0 0.00 0.44 0.44 89 1016.6
20260831031908 74 227 0.0 0.0 0.00 0.44 0.44 89 1016.6
20260831031759 74 227 0.0 0.0 0.00 0.44 0.44 89 1016.6
20260831031721 74 227 0.0 0.0 0.00 0.44 0.44 89 1016.6
20260831031532 74 227 0.0 1.0 0.00 0.44 0.44 89 1016.6
20260831031425 74 227 0.0 2.0 0.00 0.44 0.44 89 1016.6
20260831031337 74 227 0.0 2.0 0.00 0.44 0.44 89 1016.7
20260831031228 74 227 0.0 2.0 0.00 0.44 0.44 89 1016.6
20260831031141 74 227 0.0 3.0 0.00 0.44 0.44 89 1016.6
20260831031058 74 227 0.0 3.0 0.00 0.44 0.44 89 1016.6
20260831030929 74 227 0.0 3.0 0.00 0.44 0.44 89 1016.6
20260831030841 74 227 0.0 3.0 0.00 0.44 0.44 89 1016.5
20260831030732 74 227 0.0 3.0 0.00 0.44 0.44 89 1016.6
20260831030625 74 227 1.0 3.0 0.00 0.44 0.44 89 1016.6
20260831030536 74 230 1.0 3.0 0.00 0.44 0.44 89 1016.6
20260831030427 74 229 1.0 3.0 0.00 0.44 0.44 89 1016.6
20260831030339 74 229 1.0 4.0 0.00 0.44 0.44 89 1016.6
20260831030249 74 246 1.0 4.0 0.00 0.44 0.44 89 1016.6
20260831030214 74 249 0.0 4.0 0.00 0.44 0.44 89 1016.6
20260831030024 74 249 1.0 4.0 0.00 0.44 0.44 89 1016.7
20260831025936 74 251 1.0 7.0 0.00 0.44 0.44 89 1016.7
20260831025847 74 169 1.0 7.0 0.00 0.44 0.44 89 1016.7
20260831025759 74 240 1.0 7.0 0.00 0.44 0.44 89 1016.7
20260831025712 74 232 1.0 7.0 0.00 0.44 0.44 89 1016.7
20260831025602 74 244 2.0 7.0 0.00 0.44 0.44 89 1016.8
20260831025433 74 252 2.0 7.0 0.00 0.44 0.44 89 1016.8
20260831025325 74 215 2.0 7.0 0.00 0.44 0.44 89 1016.8
20260831025236 74 309 3.0 7.0 0.00 0.44 0.44 89 1016.7
20260831025132 74 240 3.0 7.0 0.00 0.44 0.44 89 1016.8
20260831025044 74 217 3.0 4.0 0.00 0.44 0.44 89 1016.8
20260831024934 74 224 1.0 4.0 0.00 0.44 0.44 89 1016.8
20260831024827 74 238 1.0 3.0 0.00 0.44 0.44 89 1016.7
20260831024740 74 238 2.0 3.0 0.00 0.44 0.44 89 1016.8
20260831024703 74 238 1.0 3.0 0.00 0.44 0.44 89 1016.8
20260831024554 74 235 1.0 4.0 0.00 0.44 0.44 89 1016.6
20260831024505 74 236 1.0 4.0 0.00 0.44 0.44 89 1016.6
20260831024358 74 234 1.0 4.0 0.00 0.44 0.44 89 1016.7
20260831024228 74 234 1.0 4.0 0.00 0.44 0.44 89 1016.6
20260831024124 74 221 2.0 4.0 0.00 0.44 0.44 89 1016.6
20260831024036 74 213 2.0 4.0 0.00 0.44 0.44 89 1016.7
20260831023929 74 237 2.0 4.0 0.00 0.44 0.44 89 1016.7
20260831023842 74 244 1.0 4.0 0.00 0.44 0.44 89 1016.7
20260831023734 74 233 2.0 4.0 0.00 0.44 0.44 89 1016.7
20260831023625 74 245 2.0 4.0 0.00 0.44 0.44 89 1016.6
20260831023537 74 251 2.0 4.0 0.00 0.44 0.44 89 1016.6
20260831023427 74 242 2.0 4.0 0.00 0.44 0.44 89 1016.6
20260831023343 74 241 2.0 4.0 0.00 0.44 0.44 89 1016.5
20260831023232 74 211 1.0 5.0 0.00 0.44 0.44 89 1016.6
20260831023156 74 247 1.0 5.0 0.00 0.44 0.44 89 1016.6
20260831023026 74 234 1.0 5.0 0.00 0.44 0.44 89 1016.4
20260831022939 74 240 1.0 5.0 0.00 0.44 0.44 89 1016.5
20260831022851 74 222 1.0 6.0 0.00 0.44 0.44 89 1016.5
20260831022802 74 200 1.0 6.0 0.00 0.44 0.44 89 1016.4
20260831022632 74 246 2.0 6.0 0.00 0.44 0.44 89 1016.5
20260831022524 74 234 2.0 6.0 0.00 0.44 0.44 89 1016.4
20260831022436 74 245 2.0 6.0 0.00 0.44 0.44 89 1016.5
20260831022332 74 235 2.0 6.0 0.00 0.44 0.44 89 1016.4
20260831022224 74 246 1.0 6.0 0.00 0.44 0.44 89 1016.4
20260831022136 74 211 2.0 6.0 0.00 0.44 0.44 89 1016.4
20260831022027 74 236 3.0 6.0 0.00 0.44 0.44 89 1016.4
20260831021940 74 180 2.0 5.0 0.00 0.44 0.44 89 1016.5
20260831021831 74 232 1.0 4.0 0.00 0.44 0.44 90 1016.4
20260831021723 74 217 2.0 4.0 0.00 0.44 0.44 90 1016.4
20260831021644 74 250 2.0 4.0 0.00 0.44 0.44 90 1016.4
20260831021539 74 255 2.0 4.0 0.00 0.44 0.44 90 1016.4
20260831021430 74 259 1.0 4.0 0.00 0.44 0.44 90 1016.3
20260831021344 73 10 1.0 4.0 0.00 0.44 0.44 90 1016.4
20260831021236 73 48 1.0 4.0 0.00 0.44 0.44 90 1016.2
20260831021129 73 38 1.0 4.0 0.00 0.44 0.44 90 1016.3
20260831021042 73 106 2.0 4.0 0.00 0.44 0.44 90 1016.2
20260831020933 73 275 2.0 4.0 0.00 0.44 0.44 90 1016.3
20260831020845 73 63 2.0 5.0 0.00 0.44 0.44 90 1016.3
20260831020735 73 237 1.0 5.0 0.00 0.44 0.44 90 1016.3
20260831020646 73 271 1.0 5.0 0.00 0.44 0.44 90 1016.3
20260831020601 73 130 1.0 5.0 0.00 0.44 0.44 90 1016.3
20260831020431 73 256 2.0 5.0 0.00 0.44 0.44 89 1016.4
20260831020324 73 245 2.0 5.0 0.00 0.44 0.44 89 1016.3
20260831020235 73 277 2.0 5.0 0.00 0.44 0.44 89 1016.2
20260831020157 73 229 2.0 5.0 0.00 0.44 0.44 89 1016.2
20260831020027 73 225 2.0 5.0 0.00 0.44 0.44 90 1016.2
20260831015939 73 325 1.0 6.0 0.00 0.44 0.44 90 1016.3
20260831015830 73 272 2.0 6.0 0.00 0.44 0.44 90 1016.2
20260831015725 73 199 2.0 6.0 0.00 0.44 0.44 90 1016.2
20260831015637 73 269 2.0 6.0 0.00 0.44 0.44 90 1016.2
20260831015529 73 198 3.0 6.0 0.00 0.44 0.44 90 1016.2
20260831015442 73 225 4.0 6.0 0.00 0.44 0.44 90 1016.2
20260831015355 73 238 3.0 6.0 0.00 0.44 0.44 90 1016.2
20260831015308 73 232 2.0 6.0 0.00 0.44 0.44 90 1016.1
20260831015219 73 252 2.0 6.0 0.00 0.44 0.44 90 1016.0
20260831015110 73 215 3.0 5.0 0.00 0.44 0.44 90 1016.1
20260831014957 73 247 2.0 5.0 0.00 0.44 0.44 90 1016.0
20260831014826 73 242 2.0 5.0 0.00 0.44 0.44 91 1016.0
20260831014736 73 148 3.0 5.0 0.00 0.44 0.44 91 1016.0
20260831014659 73 254 3.0 5.0 0.00 0.44 0.44 91 1016.0
20260831014535 73 248 3.0 5.0 0.00 0.44 0.44 91 1016.0
20260831014427 73 252 2.0 5.0 0.00 0.44 0.44 90 1016.0
20260831014340 73 234 2.0 5.0 0.00 0.44 0.44 90 1016.0
20260831014252 73 248 3.0 5.0 0.00 0.44 0.44 91 1016.0
20260831014203 73 174 2.0 5.0 0.00 0.44 0.44 91 1016.1
20260831014034 73 119 3.0 5.0 0.00 0.44 0.44 91 1016.1
20260831013926 73 237 2.0 5.0 0.00 0.44 0.44 91 1016.1
20260831013838 72 237 2.0 5.0 0.00 0.44 0.44 91 1016.1
20260831013735 72 250 3.0 5.0 0.00 0.44 0.44 91 1016.0
20260831013626 72 231 3.0 6.0 0.00 0.44 0.44 91 1016.1
20260831013536 72 209 3.0 6.0 0.00 0.44 0.44 91 1016.1
20260831013427 72 229 3.0 6.0 0.00 0.44 0.44 91 1016.1
20260831013340 72 238 3.0 6.0 0.00 0.44 0.44 91 1016.0
20260831013231 72 215 3.0 6.0 0.00 0.44 0.44 91 1016.1
20260831013153 72 240 3.0 6.0 0.00 0.44 0.44 91 1016.1
20260831013043 72 223 3.0 6.0 0.00 0.44 0.44 91 1016.2
20260831012934 72 246 3.0 6.0 0.00 0.44 0.44 91 1016.1
20260831012830 72 225 3.0 5.0 0.00 0.44 0.44 91 1016.1
20260831012742 72 239 3.0 5.0 0.00 0.44 0.44 91 1016.2
20260831012654 72 209 3.0 5.0 0.00 0.44 0.44 91 1016.0
20260831012545 72 253 3.0 5.0 0.00 0.44 0.44 91 1016.0
20260831012457 72 225 3.0 5.0 0.00 0.44 0.44 91 1016.0
20260831012347 72 242 3.0 5.0 0.00 0.44 0.44 91 1016.1
20260831012259 72 225 3.0 5.0 0.00 0.44 0.44 91 1016.0
20260831012149 72 244 2.0 5.0 0.00 0.44 0.44 91 1016.1
20260831012040 72 238 2.0 6.0 0.00 0.44 0.44 91 1016.0
20260831011932 72 251 3.0 6.0 0.00 0.44 0.44 91 1016.0
20260831011845 72 235 3.0 6.0 0.00 0.44 0.44 91 1016.0
20260831011735 72 240 3.0 6.0 0.00 0.44 0.44 91 1016.1
20260831011701 72 248 3.0 6.0 0.00 0.44 0.44 91 1016.1
20260831011532 72 250 3.0 6.0 0.00 0.44 0.44 91 1015.9
20260831011444 72 242 3.0 6.0 0.00 0.44 0.44 91 1016.0
20260831011335 72 242 3.0 6.0 0.00 0.44 0.44 91 1016.0
20260831011226 72 242 3.0 7.0 0.00 0.44 0.44 91 1016.0
20260831011137 72 244 3.0 5.0 0.00 0.44 0.44 91 1015.9
20260831011050 72 253 3.0 5.0 0.00 0.44 0.44 91 1015.9
20260831011003 72 249 3.0 5.0 0.00 0.44 0.44 91 1016.0
20260831010853 72 211 3.0 5.0 0.00 0.44 0.44 91 1015.9
20260831010804 72 232 3.0 5.0 0.00 0.44 0.44 91 1015.9
20260831010636 72 239 3.0 5.0 0.00 0.44 0.44 91 1016.0
20260831010548 72 228 3.0 5.0 0.00 0.44 0.44 91 1015.9
20260831010439 72 239 3.0 5.0 0.00 0.44 0.44 92 1015.9
20260831010351 72 243 3.0 5.0 0.00 0.44 0.44 92 1015.9
20260831010240 72 228 3.0 6.0 0.00 0.44 0.44 92 1015.9
20260831010204 72 219 3.0 6.0 0.00 0.44 0.44 92 1015.9
20260831010055 71 257 3.0 6.0 0.00 0.44 0.44 92 1015.9
20260831005945 71 203 3.0 6.0 0.00 0.44 0.44 92 1015.8
20260831005857 71 244 3.0 6.0 0.00 0.44 0.44 92 1015.9
20260831005750 71 248 3.0 6.0 0.00 0.44 0.44 92 1015.8
20260831005640 71 264 3.0 6.0 0.00 0.44 0.44 92 1015.8
20260831005551 71 213 3.0 6.0 0.00 0.44 0.44 92 1015.9
20260831005426 71 240 3.0 5.0 0.00 0.44 0.44 92 1015.9
20260831005337 71 234 3.0 5.0 0.00 0.44 0.44 92 1015.8
20260831005229 71 246 3.0 5.0 0.00 0.44 0.44 92 1015.8
20260831005141 71 248 3.0 5.0 0.00 0.44 0.44 92 1015.8
20260831005032 71 232 3.0 5.0 0.00 0.44 0.44 92 1015.8
20260831004925 71 226 3.0 5.0 0.00 0.44 0.44 92 1015.8
20260831004838 71 254 3.0 5.0 0.00 0.44 0.44 92 1015.8
20260831004729 71 235 3.0 5.0 0.00 0.44 0.44 92 1015.8
20260831004649 70 226 2.0 4.0 0.00 0.44 0.44 92 1015.8
20260831004526 71 240 2.0 4.0 0.00 0.44 0.44 92 1015.8
20260831004439 70 223 2.0 4.0 0.00 0.44 0.44 92 1015.8
20260831004331 70 208 2.0 4.0 0.00 0.44 0.44 92 1015.8
20260831004241 70 208 2.0 4.0 0.00 0.44 0.44 92 1015.7
20260831004134 70 246 2.0 4.0 0.00 0.44 0.44 92 1015.8
20260831004046 70 256 2.0 4.0 0.00 0.44 0.44 92 1015.8
20260831003938 70 235 2.0 4.0 0.00 0.44 0.44 92 1015.8
20260831003828 70 202 2.0 4.0 0.00 0.44 0.44 92 1015.8
20260831003740 70 242 3.0 4.0 0.00 0.44 0.44 92 1015.7
20260831003655 70 242 3.0 4.0 0.00 0.44 0.44 92 1015.7
20260831003525 70 239 2.0 4.0 0.00 0.44 0.44 92 1015.8
20260831003435 70 238 2.0 4.0 0.00 0.44 0.44 92 1015.7
20260831003329 70 243 3.0 4.0 0.00 0.44 0.44 92 1015.7
20260831003239 70 238 3.0 4.0 0.00 0.44 0.44 92 1015.6
20260831003201 70 242 3.0 4.0 0.00 0.44 0.44 92 1015.6
20260831003033 70 242 3.0 5.0 0.00 0.44 0.44 92 1015.7
20260831002945 70 242 3.0 5.0 0.00 0.44 0.44 92 1015.7
20260831002857 70 261 2.0 5.0 0.00 0.44 0.44 92 1015.7
20260831002732 70 229 2.0 7.0 0.00 0.44 0.44 92 1015.7
20260831002644 70 286 2.0 7.0 0.00 0.44 0.44 92 1015.7
20260831002535 70 241 2.0 7.0 0.00 0.44 0.44 92 1015.6
20260831002427 70 241 3.0 7.0 0.00 0.44 0.44 92 1015.6
20260831002338 70 234 3.0 7.0 0.00 0.44 0.44 92 1015.8
20260831002249 70 207 3.0 7.0 0.00 0.44 0.44 92 1015.7
20260831002201 70 250 4.0 7.0 0.00 0.44 0.44 92 1015.6
20260831002051 70 210 4.0 7.0 0.00 0.44 0.44 92 1015.6
20260831002002 70 244 4.0 7.0 0.00 0.44 0.44 92 1015.6
20260831001830 70 278 3.0 7.0 0.00 0.44 0.44 92 1015.6
20260831001726 70 241 3.0 7.0 0.00 0.44 0.44 92 1015.6
20260831001648 70 235 3.0 9.0 0.00 0.44 0.44 92 1015.7
20260831001539 70 242 3.0 9.0 0.00 0.44 0.44 92 1015.7
20260831001451 70 244 4.0 9.0 0.00 0.44 0.44 92 1015.7
20260831001341 70 250 4.0 9.0 0.00 0.44 0.44 92 1015.6
20260831001234 70 243 3.0 9.0 0.00 0.44 0.44 92 1015.6
20260831001127 70 239 3.0 9.0 0.00 0.44 0.44 92 1015.7
20260831001039 70 239 3.0 9.0 0.00 0.44 0.44 92 1015.7
20260831000951 70 246 3.0 9.0 0.00 0.44 0.44 92 1015.7
20260831000902 70 202 3.0 9.0 0.00 0.44 0.44 93 1015.7
20260831000739 70 234 3.0 7.0 0.00 0.44 0.44 93 1015.7
20260831000630 70 263 3.0 7.0 0.00 0.44 0.44 93 1015.6
20260831000542 70 192 3.0 7.0 0.00 0.44 0.44 93 1015.7
20260831000454 70 242 3.0 5.0 0.01 0.44 0.44 93 1015.6
20260831000344 70 243 3.0 5.0 0.01 0.44 0.44 93 1015.5
20260831000255 70 245 2.0 5.0 0.01 0.44 0.44 93 1015.7
20260831000156 70 227 3.0 5.0 0.01 0.44 0.44 93 1015.7
20260831000026 70 217 2.0 5.0 0.01 0.44 0.44 93 1015.6
20260830235938 70 219 2.0 5.0 0.01 0.44 0.44 93 1015.7
20260830235829 70 238 2.0 5.0 0.01 0.44 0.44 93 1015.7
20260830235725 70 244 3.0 5.0 0.01 0.44 0.44 93 1015.8
20260830235638 70 233 3.0 5.0 0.01 0.44 0.44 93 1015.7
20260830235530 70 244 2.0 5.0 0.01 0.44 0.44 93 1015.6
20260830235440 70 255 1.0 3.0 0.01 0.44 0.44 93 1015.6
20260830235333 70 290 0.0 4.0 0.01 0.44 0.44 93 1015.6
20260830235224 70 240 0.0 4.0 0.01 0.44 0.44 93 1015.6
20260830235136 70 240 0.0 4.0 0.01 0.44 0.44 93 1015.7
20260830235027 70 240 0.0 5.0 0.01 0.44 0.44 93 1015.8
20260830234943 70 189 1.0 5.0 0.02 0.44 0.44 93 1015.9
20260830234855 70 189 1.0 5.0 0.02 0.44 0.44 93 1015.9
20260830234805 70 241 1.0 5.0 0.02 0.44 0.44 93 1016.1
20260830234706 70 136 1.0 5.0 0.02 0.44 0.44 93 1016.1
20260830234557 70 229 1.0 5.0 0.02 0.44 0.44 93 1016.0
20260830234427 70 191 0.0 5.0 0.02 0.44 0.44 93 1016.0
20260830234339 70 191 1.0 5.0 0.02 0.44 0.44 93 1016.1
20260830234231 70 191 2.0 5.0 0.02 0.44 0.44 93 1016.2
20260830234143 70 150 2.0 5.0 0.02 0.44 0.44 93 1016.3
20260830234034 70 172 1.0 5.0 0.02 0.44 0.44 93 1016.3
20260830233930 70 242 1.0 5.0 0.03 0.44 0.44 94 1016.4
20260830233823 70 242 1.0 5.0 0.03 0.44 0.44 94 1016.6
20260830233735 70 242 2.0 5.0 0.03 0.44 0.44 94 1016.5
20260830233626 70 242 2.0 5.0 0.03 0.44 0.44 94 1016.6
20260830233539 70 214 2.0 5.0 0.03 0.44 0.44 94 1016.6
20260830233432 70 221 3.0 5.0 0.03 0.44 0.44 94 1016.6
20260830233325 70 241 3.0 8.0 0.03 0.44 0.44 94 1016.7
20260830233210 70 252 2.0 8.0 0.03 0.44 0.44 94 1016.6
20260830233100 70 252 3.0 8.0 0.03 0.44 0.44 94 1016.6
20260830232950 70 252 2.0 8.0 0.04 0.44 0.44 94 1016.6
20260830232841 70 236 3.0 8.0 0.04 0.44 0.44 94 1016.7
20260830232733 70 236 4.0 8.0 0.04 0.44 0.44 94 1016.6
20260830232625 70 251 4.0 8.0 0.04 0.44 0.44 94 1016.7
20260830232536 70 226 3.0 8.0 0.04 0.44 0.44 94 1016.7
20260830232429 70 252 3.0 8.0 0.05 0.44 0.44 94 1016.7
20260830232340 70 257 3.0 8.0 0.05 0.44 0.44 94 1016.7
20260830232232 70 244 3.0 8.0 0.05 0.44 0.44 94 1016.8
20260830232127 70 248 3.0 8.0 0.06 0.44 0.44 94 1016.7
20260830232040 70 259 2.0 8.0 0.06 0.44 0.44 94 1016.8
20260830231933 70 259 3.0 8.0 0.07 0.44 0.44 94 1016.8
20260830231825 70 236 3.0 8.0 0.07 0.44 0.44 94 1016.7
20260830231737 70 252 3.0 8.0 0.07 0.44 0.44 94 1016.7
20260830231659 70 268 2.0 5.0 0.07 0.44 0.44 94 1016.7
20260830231552 70 225 2.0 4.0 0.07 0.44 0.44 94 1016.7
20260830231503 70 247 2.0 3.0 0.07 0.44 0.44 94 1016.8
20260830231335 70 254 2.0 3.0 0.07 0.44 0.44 94 1016.7
20260830231230 70 245 1.0 3.0 0.07 0.44 0.44 94 1016.7
20260830231142 70 245 0.0 2.0 0.07 0.44 0.44 94 1016.7
20260830231054 70 167 0.0 0.0 0.07 0.44 0.44 94 1016.7
20260830230925 70 167 0.0 0.0 0.07 0.44 0.44 94 1016.7
20260830230837 70 167 0.0 0.0 0.07 0.44 0.44 94 1016.5
20260830230730 70 167 0.0 0.0 0.07 0.44 0.44 94 1016.6
20260830230642 70 167 0.0 0.0 0.07 0.44 0.44 94 1016.6
20260830230533 70 167 0.0 0.0 0.06 0.43 0.43 94 1016.6
20260830230429 70 167 0.0 0.0 0.06 0.43 0.43 94 1016.5
20260830230342 70 167 0.0 0.0 0.06 0.43 0.43 94 1016.5
20260830230252 70 167 0.0 0.0 0.07 0.43 0.43 94 1016.5
20260830230154 70 167 0.0 0.0 0.07 0.43 0.43 94 1016.5
20260830230025 70 167 0.0 0.0 0.07 0.43 0.43 94 1016.5
20260830225937 70 167 0.0 0.0 0.07 0.43 0.43 94 1016.5
20260830225848 70 167 0.0 0.0 0.08 0.43 0.43 94 1016.4
20260830225740 70 167 0.0 0.0 0.08 0.43 0.43 94 1016.5
20260830225633 70 167 0.0 0.0 0.08 0.43 0.43 94 1016.5
20260830225525 70 167 0.0 0.0 0.09 0.43 0.43 94 1016.5
20260830225440 70 167 0.0 0.0 0.09 0.43 0.43 94 1016.5
20260830225333 70 167 0.0 0.0 0.09 0.43 0.43 94 1016.5
20260830225225 70 167 0.0 0.0 0.10 0.43 0.43 94 1016.5
20260830225137 70 167 0.0 0.0 0.10 0.43 0.43 94 1016.5
20260830225029 70 167 0.0 0.0 0.09 0.42 0.42 93 1016.5
20260830224941 70 167 0.0 0.0 0.10 0.42 0.42 93 1016.5
20260830224832 70 167 0.0 0.0 0.10 0.42 0.42 93 1016.5
20260830224724 70 167 0.0 0.0 0.10 0.42 0.42 93 1016.5
20260830224650 70 167 0.0 0.0 0.10 0.42 0.42 93 1016.5
20260830224541 70 167 0.0 0.0 0.10 0.42 0.42 93 1016.5
20260830224433 70 167 0.0 0.0 0.10 0.42 0.42 93 1016.6
20260830224325 70 167 0.0 0.0 0.11 0.42 0.42 93 1016.6
20260830224237 70 269 0.0 0.0 0.11 0.42 0.42 93 1016.6
20260830224128 71 217 0.0 2.0 0.11 0.42 0.42 93 1016.6
20260830224040 71 217 0.0 2.0 0.11 0.42 0.42 93 1016.7
20260830223932 71 240 0.0 2.0 0.10 0.41 0.41 93 1016.6
20260830223829 71 240 0.0 2.0 0.11 0.41 0.41 93 1016.5
20260830223742 71 240 0.0 2.0 0.11 0.41 0.41 93 1016.6
20260830223632 71 233 0.0 2.0 0.11 0.41 0.41 93 1016.7
20260830223544 71 233 0.0 2.0 0.11 0.41 0.41 93 1016.7
20260830223457 71 233 0.0 2.0 0.11 0.41 0.41 93 1016.7
20260830223349 71 164 0.0 2.0 0.11 0.41 0.41 93 1016.7
20260830223238 71 164 0.0 2.0 0.12 0.41 0.41 93 1016.7
20260830223201 71 209 0.0 2.0 0.12 0.41 0.41 92 1016.7
20260830223031 71 209 0.0 2.0 0.11 0.40 0.40 92 1016.8
20260830222942 71 209 0.0 2.0 0.12 0.40 0.40 92 1016.7
20260830222838 71 209 0.0 3.0 0.12 0.40 0.40 92 1016.9
20260830222730 71 209 0.0 3.0 0.12 0.40 0.40 92 1016.9
20260830222642 71 209 1.0 3.0 0.13 0.40 0.40 92 1016.9
20260830222533 71 209 0.0 3.0 0.13 0.40 0.40 92 1016.9
20260830222445 71 209 0.0 4.0 0.12 0.39 0.39 92 1016.9
20260830222357 71 209 1.0 4.0 0.12 0.39 0.39 92 1016.9
20260830222227 71 209 2.0 5.0 0.11 0.38 0.39 91 1016.9
20260830222139 71 209 2.0 5.0 0.12 0.38 0.38 91 1017.0
20260830222031 71 234 2.0 5.0 0.12 0.38 0.38 91 1017.0
20260830221948 71 241 2.0 5.0 0.11 0.37 0.37 91 1017.1
20260830221839 71 241 2.0 5.0 0.11 0.37 0.37 91 1017.0
20260830221742 71 241 3.0 5.0 0.11 0.37 0.37 91 1017.0
20260830221644 71 242 2.0 5.0 0.11 0.37 0.37 91 1017.0
20260830221535 71 265 3.0 5.0 0.11 0.37 0.37 91 1017.0
20260830221427 71 249 3.0 5.0 0.11 0.37 0.37 91 1016.9
20260830221339 71 266 2.0 5.0 0.11 0.37 0.37 91 1016.9
20260830221231 72 294 2.0 5.0 0.11 0.37 0.37 91 1016.8
20260830221123 72 266 2.0 5.0 0.11 0.37 0.37 91 1016.9
20260830221039 72 248 2.0 5.0 0.11 0.37 0.37 90 1016.8
20260830220931 72 248 2.0 5.0 0.11 0.37 0.37 90 1016.8
20260830220823 72 241 2.0 5.0 0.11 0.37 0.37 90 1016.6
20260830220734 72 151 2.0 5.0 0.12 0.37 0.37 90 1016.7
20260830220647 72 118 2.0 5.0 0.12 0.37 0.37 90 1016.7
20260830220559 72 260 2.0 5.0 0.12 0.37 0.37 90 1016.7
20260830220429 72 206 2.0 5.0 0.12 0.37 0.37 90 1016.8
20260830220343 72 248 2.0 5.0 0.13 0.37 0.37 90 1016.7
20260830220234 72 248 1.0 5.0 0.12 0.36 0.36 90 1016.8
20260830220159 72 221 2.0 5.0 0.12 0.36 0.36 90 1016.8
20260830220031 72 185 2.0 6.0 0.12 0.36 0.36 90 1016.9
20260830215942 72 202 1.0 6.0 0.13 0.36 0.36 90 1017.0
20260830215834 72 159 1.0 8.0 0.12 0.35 0.35 90 1017.1
20260830215637 72 259 2.0 8.0 0.11 0.34 0.34 89 1017.2
20260830215549 72 321 2.0 8.0 0.11 0.34 0.34 90 1017.3
20260830215440 72 319 2.0 8.0 0.12 0.34 0.34 90 1017.4
20260830215332 72 333 4.0 8.0 0.12 0.34 0.34 90 1017.4
20260830215248 72 336 5.0 8.0 0.11 0.33 0.33 90 1017.3
20260830215139 72 340 4.0 8.0 0.11 0.33 0.33 90 1017.5
20260830215050 72 331 2.0 5.0 0.10 0.32 0.32 90 1017.6
20260830214941 72 321 1.0 4.0 0.10 0.32 0.32 90 1017.5
20260830214833 72 342 0.0 5.0 0.10 0.32 0.32 90 1017.5
20260830214724 72 329 0.0 5.0 0.10 0.32 0.32 90 1017.4
20260830214645 72 329 0.0 5.0 0.10 0.32 0.32 90 1017.4
20260830214537 72 329 0.0 5.0 0.10 0.32 0.32 90 1017.3
20260830214429 72 259 1.0 5.0 0.10 0.32 0.32 89 1017.3
20260830214327 72 259 2.0 5.0 0.09 0.31 0.31 89 1017.4
20260830214239 72 259 2.0 5.0 0.09 0.31 0.31 89 1017.3
20260830214151 72 259 3.0 5.0 0.09 0.31 0.31 89 1017.3
20260830214041 72 289 2.0 5.0 0.09 0.31 0.31 89 1017.3
20260830213934 72 275 0.0 4.0 0.09 0.31 0.31 89 1017.3
20260830213824 72 275 1.0 6.0 0.08 0.30 0.30 89 1017.2
20260830213737 72 275 1.0 6.0 0.08 0.30 0.30 89 1017.3
20260830213651 72 275 1.0 6.0 0.08 0.30 0.30 89 1017.3
20260830213602 72 281 0.0 6.0 0.08 0.30 0.30 89 1017.3
20260830213454 72 246 0.0 6.0 0.08 0.30 0.30 88 1017.3
20260830213318 72 246 2.0 6.0 0.07 0.29 0.29 88 1017.2
20260830213235 72 269 2.0 10.0 0.07 0.29 0.29 88 1017.1
20260830213045 73 253 2.0 10.0 0.07 0.29 0.29 88 1017.1
20260830212931 73 257 1.0 10.0 0.06 0.28 0.28 88 1017.2
20260830212842 73 215 1.0 10.0 0.06 0.28 0.28 88 1017.2
20260830212733 73 215 1.0 10.0 0.06 0.28 0.28 88 1017.2
20260830212645 73 215 1.0 10.0 0.05 0.27 0.27 88 1017.2
20260830212556 73 215 2.0 10.0 0.05 0.27 0.27 88 1017.2
20260830212508 73 215 3.0 10.0 0.05 0.27 0.27 88 1017.2
20260830210147 75 243 2.0 12.0 0.02 0.24 0.24 83 1017.3
20260830210108 75 234 3.0 12.0 0.02 0.24 0.24 83 1017.3
20260830205957 75 238 5.0 12.0 0.01 0.23 0.23 82 1017.2
20260830205847 75 238 4.0 14.0 0.01 0.23 0.23 82 1017.2
20260830205757 75 197 2.0 8.0 0.01 0.23 0.23 82 1017.2
20260830205647 75 265 3.0 8.0 0.01 0.23 0.23 82 1017.1
20260830205558 75 265 3.0 8.0 0.01 0.23 0.23 82 1017.1
20260830205509 75 240 5.0 8.0 0.00 0.22 0.22 81 1017.1
20260830205359 75 242 4.0 8.0 0.00 0.22 0.22 81 1017.1
20260830205255 75 155 3.0 8.0 0.00 0.22 0.22 82 1017.1
20260830205204 75 184 1.0 8.0 0.00 0.22 0.22 82 1017.1
20260830205055 75 215 2.0 8.0 0.00 0.22 0.22 82 1017.1
20260830205005 76 234 3.0 8.0 0.00 0.22 0.22 82 1017.0
20260830204855 76 244 2.0 8.0 0.00 0.22 0.22 82 1017.0
20260830204805 76 174 3.0 8.0 0.00 0.22 0.22 82 1016.9
20260830204655 76 202 2.0 8.0 0.00 0.22 0.22 81 1016.9
20260830204617 76 106 2.0 8.0 0.00 0.22 0.22 81 1017.0
20260830204507 76 234 3.0 8.0 0.00 0.22 0.22 81 1017.0
20260830204417 76 272 3.0 8.0 0.00 0.22 0.22 81 1017.0
20260830204250 76 142 3.0 7.0 0.00 0.22 0.22 81 1017.1
20260830204200 76 224 3.0 7.0 0.00 0.22 0.22 81 1016.9
20260830204051 76 244 3.0 8.0 0.00 0.22 0.22 81 1016.9
20260830204002 76 57 3.0 8.0 0.00 0.22 0.22 81 1016.9
20260830203914 76 218 3.0 8.0 0.00 0.22 0.22 81 1016.9
20260830203824 76 241 4.0 8.0 0.00 0.22 0.22 81 1017.0
20260830203654 76 229 4.0 8.0 0.00 0.22 0.22 81 1016.9
20260830203603 77 221 3.0 7.0 0.00 0.22 0.22 81 1016.8
20260830203454 77 236 3.0 7.0 0.00 0.22 0.22 80 1016.8
20260830203408 77 281 3.0 7.0 0.00 0.22 0.22 80 1016.7
20260830203259 77 192 3.0 7.0 0.00 0.22 0.22 80 1016.6
20260830203149 77 180 2.0 6.0 0.00 0.22 0.22 80 1016.4
20260830203111 77 121 2.0 7.0 0.00 0.22 0.22 80 1016.4
20260830202959 77 108 2.0 7.0 0.00 0.22 0.22 80 1016.4
20260830202850 77 262 2.0 6.0 0.00 0.22 0.22 79 1016.5
20260830202801 77 92 2.0 4.0 0.00 0.22 0.22 79 1016.6
20260830202651 77 252 2.0 4.0 0.00 0.22 0.22 79 1016.7
20260830202601 77 134 1.0 4.0 0.00 0.22 0.22 79 1016.9
20260830202513 77 211 2.0 4.0 0.00 0.22 0.22 79 1017.0
20260830202429 77 170 2.0 4.0 0.00 0.22 0.22 79 1017.0
20260830202340 77 244 1.0 4.0 0.00 0.22 0.22 79 1017.0
20260830202231 77 149 1.0 4.0 0.00 0.22 0.22 79 1017.0
20260830202120 77 177 2.0 4.0 0.00 0.22 0.22 78 1017.0
20260830201949 77 136 2.0 8.0 0.00 0.22 0.22 78 1017.1
20260830201901 77 203 2.0 8.0 0.00 0.22 0.22 78 1017.1
20260830201813 77 242 2.0 8.0 0.00 0.22 0.22 78 1017.1
20260830201723 78 236 2.0 8.0 0.00 0.22 0.22 78 1017.2
20260830201625 78 232 3.0 8.0 0.00 0.22 0.22 78 1017.1
20260830201454 78 294 3.0 8.0 0.00 0.22 0.22 77 1017.2
20260830201348 78 245 3.0 8.0 0.00 0.22 0.22 77 1017.3
20260830201300 78 240 4.0 8.0 0.00 0.22 0.22 77 1017.3
20260830201210 78 240 3.0 8.0 0.00 0.22 0.22 77 1017.2
20260830201100 78 237 1.0 7.0 0.00 0.22 0.22 77 1017.2
20260830200951 78 254 2.0 7.0 0.00 0.22 0.22 77 1017.3
20260830200901 78 254 2.0 7.0 0.00 0.22 0.22 76 1017.2
20260830200751 78 228 2.0 7.0 0.00 0.22 0.22 76 1017.2
20260830200702 78 243 3.0 7.0 0.00 0.22 0.22 76 1017.1
20260830200553 78 243 3.0 7.0 0.00 0.22 0.22 75 1017.1
20260830200447 78 254 3.0 7.0 0.00 0.22 0.22 75 1017.0
20260830200359 78 261 4.0 7.0 0.00 0.22 0.22 75 1017.0
20260830200248 79 229 4.0 7.0 0.00 0.22 0.22 75 1016.9
20260830200157 79 263 2.0 6.0 0.00 0.22 0.22 75 1016.9
20260830200120 79 245 2.0 6.0 0.00 0.22 0.22 75 1016.9
20260830195949 79 225 3.0 7.0 0.00 0.22 0.22 74 1016.9
20260830195901 79 231 3.0 7.0 0.00 0.22 0.22 74 1016.8
20260830195751 79 249 3.0 7.0 0.00 0.22 0.22 74 1016.8
20260830195703 79 282 4.0 7.0 0.00 0.22 0.22 74 1016.8
20260830195557 79 217 4.0 7.0 0.00 0.22 0.22 74 1016.8
20260830195449 79 286 4.0 7.0 0.00 0.22 0.22 74 1016.8
20260830195359 79 236 4.0 7.0 0.00 0.22 0.22 73 1016.8
20260830195249 79 256 4.0 7.0 0.00 0.22 0.22 73 1016.8
20260830195159 79 222 4.0 8.0 0.00 0.22 0.22 74 1016.8
20260830195049 79 226 4.0 8.0 0.00 0.22 0.22 73 1016.8
20260830194959 79 216 4.0 8.0 0.00 0.22 0.22 73 1016.8
20260830194908 79 238 4.0 8.0 0.00 0.22 0.22 73 1016.7
20260830194819 79 238 3.0 7.0 0.00 0.22 0.22 74 1016.7
20260830194710 79 244 3.0 7.0 0.00 0.22 0.22 73 1016.8
20260830194635 79 253 3.0 5.0 0.00 0.22 0.22 73 1016.7
20260830194525 79 225 1.0 6.0 0.00 0.22 0.22 73 1016.6
20260830194415 80 275 1.0 6.0 0.00 0.22 0.22 73 1016.6
20260830194325 80 267 2.0 6.0 0.00 0.22 0.22 73 1016.6
20260830194155 80 234 2.0 6.0 0.00 0.22 0.22 73 1016.6
20260830194106 80 253 2.0 6.0 0.00 0.22 0.22 73 1016.6
20260830193953 80 190 2.0 6.0 0.00 0.22 0.22 73 1016.7
20260830193905 80 194 2.0 6.0 0.00 0.22 0.22 73 1016.7
20260830193755 80 226 3.0 6.0 0.00 0.22 0.22 72 1016.7
20260830193649 80 219 4.0 7.0 0.00 0.22 0.22 72 1016.7
20260830193600 80 243 3.0 7.0 0.00 0.22 0.22 72 1016.8
20260830193452 80 228 2.0 9.0 0.00 0.22 0.22 73 1016.8
20260830193401 80 245 2.0 9.0 0.00 0.22 0.22 72 1016.7
20260830193315 80 238 3.0 9.0 0.00 0.22 0.22 72 1016.7
20260830193223 80 246 3.0 9.0 0.00 0.22 0.22 72 1016.7
20260830193145 80 209 2.0 9.0 0.00 0.22 0.22 72 1016.7
20260830193013 80 257 3.0 9.0 0.00 0.22 0.22 71 1016.7
20260830192902 80 257 3.0 9.0 0.00 0.22 0.22 72 1016.6
20260830192813 80 227 3.0 9.0 0.00 0.22 0.22 72 1016.6
20260830192725 80 232 5.0 9.0 0.00 0.22 0.22 71 1016.6
20260830192557 80 231 4.0 9.0 0.00 0.22 0.22 71 1016.6
20260830192447 80 248 3.0 9.0 0.00 0.22 0.22 71 1016.6
20260830192400 80 229 3.0 9.0 0.00 0.22 0.22 72 1016.6
20260830192249 80 221 3.0 9.0 0.00 0.22 0.22 71 1016.6
20260830192201 80 235 4.0 9.0 0.00 0.22 0.22 71 1016.6
20260830192111 80 240 4.0 9.0 0.00 0.22 0.22 71 1016.6
20260830192000 80 200 3.0 9.0 0.00 0.22 0.22 71 1016.6
20260830191852 80 222 4.0 9.0 0.00 0.22 0.22 71 1016.6
20260830191803 80 254 5.0 9.0 0.00 0.22 0.22 70 1016.6
20260830191714 81 234 5.0 7.0 0.00 0.22 0.22 71 1016.7
20260830191618 81 253 5.0 7.0 0.00 0.22 0.22 71 1016.6
20260830191448 81 239 5.0 9.0 0.00 0.22 0.22 71 1016.6
20260830191359 81 230 4.0 9.0 0.00 0.22 0.22 72 1016.6
20260830191311 81 293 3.0 9.0 0.00 0.22 0.22 72 1016.5
20260830191221 81 272 3.0 9.0 0.00 0.22 0.22 72 1016.4
20260830191111 81 249 4.0 9.0 0.00 0.22 0.22 71 1016.5
20260830191023 81 184 4.0 12.0 0.00 0.22 0.22 71 1016.4
20260830190913 81 198 5.0 12.0 0.00 0.22 0.22 71 1016.4
20260830190823 81 256 4.0 12.0 0.00 0.22 0.22 70 1016.3
20260830190654 81 197 3.0 12.0 0.00 0.22 0.22 72 1016.3
20260830190547 81 162 2.0 12.0 0.00 0.22 0.22 72 1016.4
20260830190459 81 254 3.0 12.0 0.00 0.22 0.22 72 1016.4
20260830190350 81 194 5.0 12.0 0.00 0.22 0.22 71 1016.4
20260830190303 81 259 6.0 12.0 0.00 0.22 0.22 72 1016.4
20260830190152 81 253 5.0 11.0 0.00 0.22 0.22 72 1016.5
20260830190114 81 282 4.0 9.0 0.00 0.22 0.22 73 1016.5
20260830190004 81 98 4.0 8.0 0.00 0.22 0.22 73 1016.5
20260830185854 81 259 3.0 8.0 0.00 0.22 0.22 73 1016.5
20260830185805 81 275 2.0 8.0 0.00 0.22 0.22 73 1016.5
20260830185700 81 278 1.0 8.0 0.00 0.22 0.22 73 1016.5
20260830185549 81 59 2.0 10.0 0.00 0.22 0.22 72 1016.5
20260830185500 81 195 3.0 10.0 0.00 0.22 0.22 72 1016.4
20260830185411 81 157 3.0 10.0 0.00 0.22 0.22 73 1016.4
20260830185323 81 114 3.0 10.0 0.00 0.22 0.22 73 1016.4
20260830185234 81 262 5.0 12.0 0.00 0.22 0.22 72 1016.4
20260830185123 81 227 3.0 12.0 0.00 0.22 0.22 72 1016.5
20260830184954 81 278 2.0 12.0 0.00 0.22 0.22 74 1016.4
20260830184905 81 180 2.0 12.0 0.00 0.22 0.22 74 1016.5
20260830184755 81 139 5.0 14.0 0.00 0.22 0.22 73 1016.4
20260830184650 81 223 4.0 14.0 0.00 0.22 0.22 73 1016.5
20260830184612 81 157 4.0 14.0 0.00 0.22 0.22 73 1016.5
20260830184501 81 286 6.0 14.0 0.00 0.22 0.22 72 1016.5
20260830184351 81 232 7.0 14.0 0.00 0.22 0.22 72 1016.6
20260830184301 81 238 5.0 14.0 0.00 0.22 0.22 73 1016.7
20260830184151 81 105 4.0 14.0 0.00 0.22 0.22 72 1016.5
20260830184102 81 253 6.0 14.0 0.00 0.22 0.22 72 1016.6
20260830184012 81 274 4.0 14.0 0.00 0.22 0.22 73 1016.6
20260830183923 81 256 3.0 10.0 0.00 0.22 0.22 74 1016.6
20260830183757 81 165 3.0 10.0 0.00 0.22 0.22 74 1016.7
20260830183709 81 13 4.0 10.0 0.00 0.22 0.22 74 1016.7
20260830183618 81 246 4.0 10.0 0.00 0.22 0.22 73 1016.7
20260830183446 81 140 4.0 9.0 0.00 0.22 0.22 74 1016.7
20260830183357 81 244 4.0 9.0 0.00 0.22 0.22 74 1016.7
20260830183309 81 269 2.0 7.0 0.00 0.22 0.22 75 1016.7
20260830183219 81 140 2.0 9.0 0.00 0.22 0.22 75 1016.7
20260830183120 81 121 3.0 9.0 0.00 0.22 0.22 76 1016.8
20260830182949 81 163 3.0 9.0 0.00 0.22 0.22 75 1016.7
20260830182901 81 270 3.0 12.0 0.00 0.22 0.22 74 1016.8
20260830182812 81 258 3.0 12.0 0.00 0.22 0.22 75 1016.8
20260830182726 81 227 4.0 12.0 0.00 0.22 0.22 75 1016.8
20260830182556 80 234 3.0 12.0 0.00 0.22 0.22 74 1016.7
20260830182506 80 153 2.0 12.0 0.00 0.22 0.22 76 1016.8
20260830182416 80 211 3.0 12.0 0.00 0.22 0.22 75 1016.8
20260830182326 80 258 3.0 12.0 0.00 0.22 0.22 75 1016.8
20260830182155 80 222 4.0 12.0 0.00 0.22 0.22 76 1016.8
20260830182106 80 249 4.0 12.0 0.00 0.22 0.22 76 1016.8
20260830181956 80 172 4.0 10.0 0.00 0.22 0.22 75 1016.9
20260830181906 80 194 4.0 10.0 0.00 0.22 0.22 75 1016.9
20260830181818 80 241 3.0 10.0 0.00 0.22 0.22 75 1016.9
20260830181650 80 256 4.0 10.0 0.00 0.22 0.22 74 1016.9
20260830181613 80 251 5.0 10.0 0.00 0.22 0.22 74 1016.9
20260830181502 80 241 5.0 10.0 0.00 0.22 0.22 74 1016.9
20260830181354 80 246 6.0 11.0 0.00 0.22 0.22 74 1016.9
20260830181303 80 109 6.0 11.0 0.00 0.22 0.22 74 1016.9
20260830181155 80 225 6.0 11.0 0.00 0.22 0.22 75 1016.8
20260830181105 80 274 6.0 11.0 0.00 0.22 0.22 74 1016.9
20260830180957 80 227 5.0 11.0 0.00 0.22 0.22 76 1016.9
20260830180908 80 260 3.0 11.0 0.00 0.22 0.22 76 1016.9
20260830180824 80 138 4.0 11.0 0.00 0.22 0.22 76 1016.9
20260830180734 80 163 4.0 11.0 0.00 0.22 0.22 76 1016.8
20260830180644 80 150 5.0 10.0 0.00 0.22 0.22 75 1016.8
20260830180533 80 158 5.0 10.0 0.00 0.22 0.22 75 1016.8
20260830180424 80 223 5.0 10.0 0.00 0.22 0.22 75 1016.8
20260830180337 80 168 5.0 10.0 0.00 0.22 0.22 75 1016.7
20260830180246 80 198 4.0 9.0 0.00 0.22 0.22 76 1016.7
20260830180147 80 309 3.0 9.0 0.00 0.22 0.22 75 1016.7
20260830180015 80 194 4.0 9.0 0.00 0.22 0.22 75 1016.6
20260830175905 80 19 4.0 9.0 0.00 0.22 0.22 75 1016.5
20260830175756 80 141 2.0 9.0 0.00 0.22 0.22 76 1016.5
20260830175650 80 155 4.0 9.0 0.00 0.22 0.22 76 1016.5
20260830175600 80 153 4.0 9.0 0.00 0.22 0.22 77 1016.5
20260830175450 79 96 3.0 8.0 0.00 0.22 0.22 76 1016.5
20260830175400 79 279 3.0 8.0 0.00 0.22 0.22 76 1016.4
20260830175250 79 144 3.0 8.0 0.00 0.22 0.22 77 1016.4
20260830175200 79 218 3.0 8.0 0.00 0.22 0.22 77 1016.5
20260830175111 79 238 3.0 8.0 0.00 0.22 0.22 76 1016.4
20260830175022 79 163 3.0 8.0 0.00 0.22 0.22 77 1016.3
20260830174853 79 148 2.0 10.0 0.00 0.22 0.22 78 1016.4
20260830174747 79 360 2.0 10.0 0.00 0.22 0.22 78 1016.3
20260830174658 79 222 3.0 10.0 0.00 0.22 0.22 78 1016.3
20260830174619 79 232 3.0 10.0 0.00 0.22 0.22 79 1016.3
20260830174509 79 229 4.0 10.0 0.00 0.22 0.22 79 1016.3
20260830174419 78 164 4.0 11.0 0.00 0.22 0.22 79 1016.4
20260830174248 78 225 4.0 12.0 0.00 0.22 0.22 79 1016.4
20260830174200 78 149 4.0 12.0 0.00 0.22 0.22 79 1016.4
20260830174110 78 257 4.0 12.0 0.00 0.22 0.22 79 1016.4
20260830174001 78 142 4.0 12.0 0.00 0.22 0.22 79 1016.5
20260830173851 78 205 5.0 12.0 0.00 0.22 0.22 80 1016.4
20260830173802 78 146 4.0 12.0 0.00 0.22 0.22 79 1016.5
20260830173656 78 160 6.0 12.0 0.00 0.22 0.22 78 1016.5
20260830173548 78 222 6.0 12.0 0.00 0.22 0.22 79 1016.5
20260830173459 78 147 5.0 12.0 0.00 0.22 0.22 81 1016.5
20260830173348 78 202 4.0 8.0 0.00 0.22 0.22 80 1016.6
20260830173300 78 149 4.0 8.0 0.00 0.22 0.22 80 1016.6
20260830173150 78 189 4.0 8.0 0.00 0.22 0.22 81 1016.6
20260830173112 78 226 4.0 8.0 0.00 0.22 0.22 80 1016.6
20260830173003 78 150 4.0 8.0 0.00 0.22 0.22 81 1016.6
20260830172748 77 184 3.0 14.0 0.00 0.22 0.22 82 1016.7
20260830172700 77 144 3.0 14.0 0.00 0.22 0.22 81 1016.7
20260830172551 77 180 4.0 14.0 0.00 0.22 0.22 81 1016.6
20260830172501 77 143 4.0 14.0 0.00 0.22 0.22 81 1016.6
20260830172351 77 152 4.0 14.0 0.00 0.22 0.22 80 1016.6
20260830172305 77 209 5.0 14.0 0.00 0.22 0.22 80 1016.6
20260830172212 77 170 6.0 14.0 0.00 0.22 0.22 81 1016.6
20260830172101 77 156 5.0 14.0 0.00 0.22 0.22 81 1016.7
20260830172011 77 159 5.0 14.0 0.00 0.22 0.22 83 1016.7
20260830171921 77 171 4.0 8.0 0.00 0.22 0.22 83 1016.7
20260830171754 77 255 3.0 8.0 0.00 0.22 0.22 83 1016.6
20260830171705 77 134 3.0 8.0 0.00 0.22 0.22 83 1016.7
20260830171626 77 172 3.0 11.0 0.00 0.22 0.22 83 1016.7
20260830171456 76 155 3.0 12.0 0.00 0.22 0.22 84 1016.6
20260830171403 76 128 3.0 12.0 0.00 0.22 0.22 84 1016.7
20260830171253 76 144 4.0 12.0 0.00 0.22 0.22 84 1016.7
20260830171204 76 138 3.0 12.0 0.00 0.22 0.22 85 1016.6
20260830171054 76 297 3.0 12.0 0.00 0.22 0.22 85 1016.7
20260830170948 75 151 4.0 12.0 0.00 0.22 0.22 84 1016.8
20260830170858 75 121 5.0 12.0 0.00 0.22 0.22 84 1016.8
20260830170748 75 145 6.0 12.0 0.00 0.22 0.22 84 1016.7
20260830170659 75 155 6.0 11.0 0.00 0.22 0.22 85 1016.7
20260830170550 75 219 5.0 11.0 0.00 0.22 0.22 86 1016.9
20260830170500 75 178 3.0 12.0 0.00 0.22 0.22 86 1016.9
20260830170350 75 149 5.0 14.0 0.00 0.22 0.22 85 1016.9
20260830170302 75 173 5.0 14.0 0.00 0.22 0.22 85 1016.9
20260830170152 74 190 5.0 14.0 0.00 0.22 0.22 86 1016.9
20260830170117 74 147 5.0 14.0 0.00 0.22 0.22 85 1016.8
20260830165947 74 156 5.0 14.0 0.00 0.22 0.22 85 1016.9
20260830165858 74 163 5.0 14.0 0.00 0.22 0.22 86 1016.9
20260830165748 74 158 5.0 14.0 0.00 0.22 0.22 86 1016.9
20260830165658 74 113 6.0 14.0 0.00 0.22 0.22 86 1016.9
20260830165609 74 151 7.0 14.0 0.00 0.22 0.22 86 1016.9
20260830165519 74 161 7.0 14.0 0.00 0.22 0.22 86 1017.0
20260830165407 74 152 5.0 11.0 0.00 0.22 0.22 87 1017.1
20260830165320 74 157 5.0 11.0 0.00 0.22 0.22 87 1017.2
20260830165209 74 157 4.0 11.0 0.00 0.22 0.22 87 1017.2
20260830165059 74 134 5.0 11.0 0.00 0.22 0.22 87 1017.2
20260830164953 74 139 5.0 11.0 0.00 0.22 0.22 88 1017.2
20260830164903 73 151 5.0 11.0 0.00 0.22 0.22 88 1017.3
20260830164814 73 148 4.0 11.0 0.00 0.22 0.22 88 1017.3
20260830164702 73 188 4.0 11.0 0.00 0.22 0.22 88 1017.3
20260830164624 73 96 4.0 11.0 0.00 0.22 0.22 88 1017.3
20260830164515 73 180 4.0 8.0 0.00 0.22 0.22 89 1017.4
20260830164404 73 170 4.0 8.0 0.00 0.22 0.22 89 1017.4
20260830164254 73 153 4.0 8.0 0.00 0.22 0.22 89 1017.4
20260830164207 73 181 5.0 8.0 0.00 0.22 0.22 89 1017.3
20260830164117 72 148 5.0 8.0 0.00 0.22 0.22 89 1017.3
20260830163951 72 166 5.0 9.0 0.00 0.22 0.22 89 1017.4
20260830163901 72 169 5.0 9.0 0.00 0.22 0.22 89 1017.4
20260830163752 72 207 5.0 12.0 0.00 0.22 0.22 90 1017.5
20260830163702 72 152 4.0 14.0 0.00 0.22 0.22 90 1017.6
20260830163553 72 165 3.0 14.0 0.00 0.22 0.22 90 1017.7
20260830163505 72 160 4.0 14.0 0.00 0.22 0.22 90 1017.7
20260830163358 72 162 4.0 14.0 0.00 0.22 0.22 90 1017.7
20260830163247 71 149 4.0 14.0 0.00 0.22 0.22 90 1017.9
20260830163157 71 165 4.0 14.0 0.00 0.22 0.22 90 1017.9
20260830163122 71 200 5.0 14.0 0.00 0.22 0.22 90 1017.9
20260830163012 71 169 5.0 14.0 0.00 0.22 0.22 90 1018.0
20260830162923 71 149 4.0 13.0 0.00 0.22 0.22 91 1018.0
20260830162751 71 192 4.0 6.0 0.00 0.22 0.22 91 1018.0
20260830162702 71 169 3.0 11.0 0.00 0.22 0.22 91 1018.1
20260830162552 71 175 2.0 11.0 0.00 0.22 0.22 91 1018.0
20260830162502 71 171 3.0 11.0 0.00 0.22 0.22 91 1018.1
20260830162353 71 134 3.0 11.0 0.00 0.22 0.22 91 1018.1
20260830162306 71 117 2.0 11.0 0.00 0.22 0.22 91 1018.2
20260830162157 71 159 2.0 11.0 0.00 0.22 0.22 92 1018.1
20260830162047 71 157 4.0 11.0 0.00 0.22 0.22 92 1018.0
20260830161957 71 136 4.0 11.0 0.00 0.22 0.22 92 1018.0
20260830161848 71 140 4.0 12.0 0.00 0.22 0.22 92 1018.1
20260830161758 71 254 3.0 11.0 0.00 0.22 0.22 92 1018.1
20260830161648 71 150 3.0 11.0 0.00 0.22 0.22 92 1018.1
20260830161608 71 157 3.0 11.0 0.00 0.22 0.22 92 1018.1
20260830161458 70 165 3.0 11.0 0.00 0.22 0.22 92 1018.1
20260830161409 70 178 4.0 11.0 0.00 0.22 0.22 93 1018.1
20260830161259 70 78 4.0 11.0 0.00 0.22 0.22 93 1018.1
20260830161154 70 153 4.0 11.0 0.01 0.22 0.22 93 1018.1
20260830161105 70 159 4.0 11.0 0.01 0.22 0.22 93 1018.1
20260830161016 70 227 4.0 11.0 0.01 0.22 0.22 93 1018.1
20260830160907 70 155 3.0 11.0 0.02 0.22 0.22 93 1018.0
20260830160756 70 173 4.0 11.0 0.02 0.22 0.22 93 1018.0
20260830160647 70 166 4.0 11.0 0.02 0.22 0.22 93 1018.1
20260830160558 70 147 3.0 9.0 0.02 0.22 0.22 93 1018.1
20260830160448 70 158 3.0 9.0 0.02 0.22 0.22 93 1018.0
20260830160358 70 208 3.0 9.0 0.02 0.22 0.22 94 1018.0
20260830160314 70 188 4.0 9.0 0.02 0.22 0.22 94 1018.0
20260830160223 70 255 4.0 9.0 0.02 0.22 0.22 94 1018.0
20260830160146 70 146 4.0 9.0 0.02 0.22 0.22 94 1018.1
20260830160036 70 169 4.0 10.0 0.02 0.22 0.22 94 1018.0
20260830155945 69 253 3.0 10.0 0.03 0.22 0.22 94 1018.0
20260830155836 69 165 3.0 10.0 0.03 0.22 0.22 94 1017.9
20260830155726 69 189 3.0 10.0 0.03 0.22 0.22 94 1017.9
20260830155638 69 161 3.0 10.0 0.03 0.22 0.22 94 1017.9
20260830155527 69 157 3.0 10.0 0.04 0.22 0.22 95 1017.8
20260830155415 69 132 4.0 10.0 0.04 0.22 0.22 95 1017.9
20260830155306 69 157 5.0 10.0 0.04 0.22 0.22 94 1017.8
20260830155154 69 151 5.0 9.0 0.04 0.22 0.22 94 1017.9
20260830155048 69 155 5.0 10.0 0.05 0.22 0.22 94 1018.0
20260830154959 69 164 5.0 10.0 0.05 0.22 0.22 94 1018.0
20260830154909 69 153 4.0 11.0 0.05 0.22 0.22 95 1018.0
20260830154759 69 169 4.0 11.0 0.05 0.22 0.22 95 1018.0
20260830154649 68 162 4.0 11.0 0.05 0.22 0.22 95 1018.1
20260830154612 68 155 5.0 11.0 0.05 0.22 0.22 95 1018.0
20260830154502 68 157 5.0 11.0 0.06 0.22 0.22 95 1018.1
20260830154413 68 152 5.0 11.0 0.06 0.22 0.22 95 1018.0
20260830154323 68 147 5.0 11.0 0.06 0.22 0.22 95 1018.0
20260830154153 68 136 4.0 12.0 0.06 0.22 0.22 96 1018.0
20260830154047 68 151 5.0 12.0 0.07 0.22 0.22 95 1018.1
20260830153958 68 157 4.0 12.0 0.07 0.22 0.22 96 1018.1
20260830153848 68 146 3.0 12.0 0.07 0.22 0.22 95 1018.0
20260830153759 67 151 4.0 12.0 0.07 0.22 0.22 95 1018.0
20260830153650 67 169 5.0 12.0 0.08 0.22 0.22 95 1018.0
20260830153602 67 158 7.0 13.0 0.08 0.22 0.22 95 1018.0
20260830153452 67 159 5.0 13.0 0.08 0.22 0.22 95 1018.0
20260830153403 67 135 4.0 13.0 0.09 0.22 0.22 95 1018.0
20260830153258 67 167 5.0 13.0 0.09 0.22 0.22 95 1018.0
20260830153208 67 182 5.0 13.0 0.10 0.22 0.22 95 1018.0
20260830153108 67 134 4.0 13.0 0.10 0.22 0.22 95 1018.0
20260830152958 67 189 4.0 13.0 0.10 0.22 0.22 95 1018.0
20260830152849 67 177 6.0 15.0 0.10 0.22 0.22 95 1018.1
20260830152801 67 148 6.0 15.0 0.10 0.22 0.22 95 1018.1
20260830152650 67 163 5.0 15.0 0.10 0.22 0.22 95 1018.1
20260830152601 67 155 4.0 15.0 0.10 0.22 0.22 95 1018.2
20260830152450 67 150 4.0 15.0 0.10 0.22 0.22 95 1018.2
20260830152400 67 161 5.0 15.0 0.10 0.22 0.22 95 1018.3
20260830152254 67 168 6.0 15.0 0.11 0.22 0.22 95 1018.3
20260830152205 67 140 7.0 15.0 0.11 0.22 0.22 95 1018.3
20260830152055 67 150 7.0 15.0 0.11 0.22 0.22 95 1018.3
20260830152006 67 146 6.0 15.0 0.11 0.22 0.22 95 1018.2
20260830151917 67 154 6.0 14.0 0.11 0.22 0.22 95 1018.2
20260830151827 67 146 7.0 14.0 0.11 0.22 0.22 95 1018.2
20260830151656 67 188 8.0 14.0 0.12 0.22 0.22 95 1018.1
20260830151617 67 153 8.0 14.0 0.12 0.22 0.22 95 1018.2
20260830151508 67 158 7.0 14.0 0.12 0.22 0.22 95 1018.3
20260830151357 67 154 7.0 11.0 0.12 0.22 0.22 95 1018.3
20260830151251 67 153 7.0 11.0 0.11 0.21 0.21 95 1018.4
20260830151203 67 140 7.0 11.0 0.11 0.21 0.21 95 1018.5
20260830151054 67 145 7.0 11.0 0.12 0.21 0.21 95 1018.4
20260830151004 67 198 7.0 11.0 0.11 0.20 0.20 95 1018.5
20260830150854 67 151 7.0 11.0 0.11 0.20 0.20 95 1018.6
20260830150805 67 153 6.0 11.0 0.11 0.20 0.20 95 1018.7
20260830150656 67 144 4.0 11.0 0.11 0.20 0.20 95 1018.7
20260830150606 67 159 4.0 11.0 0.12 0.20 0.20 95 1018.8
20260830150501 67 140 5.0 11.0 0.12 0.20 0.20 95 1018.8
20260830150351 67 148 7.0 11.0 0.12 0.20 0.20 95 1018.9
20260830150300 67 148 8.0 11.0 0.12 0.20 0.20 95 1018.9
20260830150148 67 138 6.0 11.0 0.13 0.20 0.20 95 1018.9
20260830150111 67 136 5.0 10.0 0.13 0.20 0.20 95 1018.9
20260830150001 67 147 3.0 10.0 0.12 0.19 0.19 95 1019.2
20260830145911 67 145 3.0 10.0 0.12 0.19 0.19 95 1019.2
20260830145800 67 158 4.0 10.0 0.12 0.19 0.19 95 1019.4
20260830145650 67 160 4.0 10.0 0.13 0.19 0.19 95 1019.3
20260830145600 67 152 3.0 10.0 0.13 0.19 0.19 95 1019.4
20260830145454 67 146 4.0 10.0 0.12 0.18 0.18 95 1019.4
20260830145406 67 173 5.0 10.0 0.12 0.18 0.18 95 1019.3
20260830145317 67 148 4.0 11.0 0.12 0.18 0.18 95 1019.3
20260830145206 67 144 2.0 7.0 0.12 0.18 0.18 95 1019.4
20260830145117 67 150 2.0 7.0 0.11 0.17 0.17 95 1019.4
20260830145027 67 153 3.0 7.0 0.12 0.17 0.17 94 1019.3
20260830144937 67 148 3.0 7.0 0.12 0.17 0.17 94 1019.3
20260830144827 67 159 2.0 7.0 0.12 0.17 0.17 94 1019.2
20260830144716 67 160 3.0 7.0 0.12 0.17 0.17 94 1019.3
20260830144638 67 153 4.0 7.0 0.12 0.17 0.17 94 1019.3
20260830144447 67 152 3.0 7.0 0.12 0.16 0.16 94 1019.3
20260830144400 67 140 1.0 7.0 0.12 0.16 0.16 94 1019.3
20260830144311 67 191 1.0 7.0 0.12 0.16 0.16 94 1019.3
20260830144159 67 197 2.0 7.0 0.11 0.15 0.15 94 1019.3
20260830144111 67 161 1.0 7.0 0.11 0.15 0.15 94 1019.4
20260830144001 67 149 2.0 7.0 0.11 0.15 0.15 94 1019.4
20260830143852 67 138 2.0 7.0 0.11 0.15 0.15 94 1019.4
20260830143802 67 150 3.0 7.0 0.10 0.14 0.14 94 1019.5
20260830143653 67 153 2.0 7.0 0.10 0.14 0.14 94 1019.5
20260830143605 67 144 1.0 5.0 0.11 0.14 0.14 94 1019.5
20260830143456 67 162 1.0 5.0 0.10 0.13 0.13 94 1019.5
20260830143411 67 162 1.0 5.0 0.10 0.13 0.13 94 1019.6
20260830143322 67 167 1.0 5.0 0.10 0.13 0.13 94 1019.5
20260830143149 67 150 2.0 7.0 0.09 0.12 0.12 94 1019.5
20260830143112 67 151 2.0 7.0 0.09 0.12 0.12 94 1019.4
20260830143001 67 154 2.0 7.0 0.09 0.12 0.12 94 1019.4
20260830142914 67 150 2.0 7.0 0.09 0.12 0.12 94 1019.4
20260830142825 67 178 1.0 7.0 0.09 0.12 0.12 94 1019.2
20260830142655 67 157 2.0 7.0 0.09 0.12 0.12 94 1019.3
20260830142606 67 199 2.0 7.0 0.09 0.12 0.12 94 1019.3
20260830142455 67 208 3.0 7.0 0.09 0.12 0.12 94 1019.2
20260830142348 67 143 3.0 7.0 0.08 0.11 0.11 94 1019.2
20260830142258 67 159 3.0 7.0 0.08 0.11 0.11 94 1019.2
20260830142148 67 155 3.0 7.0 0.09 0.11 0.11 93 1019.2
20260830142058 67 148 2.0 6.0 0.09 0.11 0.11 93 1019.2
20260830141950 67 156 2.0 6.0 0.09 0.11 0.11 93 1019.3